Time,TemperatureF,DewpointF,PressureIn,WindDirection,WindDirectionDegrees,WindSpeedMPH,WindSpeedGustMPH,Humidity,HourlyPrecipIn,Conditions,Clouds,dailyrainin,SoftwareType,DateUTC
2013-09-24 00:00:00,43.9,20.5,29.91,South,191,2.2,2.7,39,0.00,,---,0.00,VWS V14.01,2013-09-24 06:00:00,
2013-09-24 00:03:00,43.9,20.5,29.91,South,189,2.7,2.7,39,0.00,,---,0.00,VWS V14.01,2013-09-24 06:03:00,
2013-09-24 00:04:00,44.1,20.7,29.91,South,190,2.2,2.7,39,0.00,,---,0.00,VWS V14.01,2013-09-24 06:04:00,
2013-09-24 00:05:00,44.1,20.7,29.91,South,190,0.0,2.2,39,0.00,,---,0.00,VWS V14.01,2013-09-24 06:05:00,
2013-09-24 00:08:00,44.1,20.7,29.91,South,190,0.0,0.0,39,0.00,,---,0.00,VWS V14.01,2013-09-24 06:08:00,
2013-09-24 00:09:00,44.2,20.9,29.91,South,190,0.0,0.0,39,0.00,,---,0.00,VWS V14.01,2013-09-24 06:09:00,
2013-09-24 00:10:00,44.2,20.9,29.91,South,190,0.0,0.0,39,0.00,,---,0.00,VWS V14.01,2013-09-24 06:10:00,
2013-09-24 00:13:00,44.2,20.9,29.91,South,184,0.0,2.7,39,0.00,,---,0.00,VWS V14.01,2013-09-24 06:13:00,
2013-09-24 00:14:00,44.1,20.7,29.91,South,184,0.0,0.0,39,0.00,,---,0.00,VWS V14.01,2013-09-24 06:14:00,
2013-09-24 00:15:00,43.9,20.5,29.91,South,184,0.0,0.0,39,0.00,,---,0.00,VWS V14.01,2013-09-24 06:15:00,
2013-09-24 00:18:00,43.7,20.4,29.91,South,184,2.7,2.7,39,0.00,,---,0.00,VWS V14.01,2013-09-24 06:18:00,
2013-09-24 00:19:00,43.5,20.2,29.91,South,184,0.0,2.7,39,0.00,,---,0.00,VWS V14.01,2013-09-24 06:19:00,
2013-09-24 00:20:00,43.5,20.8,29.91,South,191,3.6,3.6,40,0.00,,---,0.00,VWS V14.01,2013-09-24 06:20:00,
2013-09-24 00:23:00,43.3,20.6,29.91,South,191,0.0,0.0,40,0.00,,---,0.00,VWS V14.01,2013-09-24 06:23:00,
2013-09-24 00:24:00,43.3,20.6,29.91,South,191,0.0,0.0,40,0.00,,---,0.00,VWS V14.01,2013-09-24 06:24:00,
2013-09-24 00:25:00,43.3,20.6,29.91,South,191,0.0,0.0,40,0.00,,---,0.00,VWS V14.01,2013-09-24 06:25:00,
2013-09-24 00:28:00,43.3,20.6,29.91,South,191,0.0,0.0,40,0.00,,---,0.00,VWS V14.01,2013-09-24 06:28:00,
2013-09-24 00:29:00,43.3,20.6,29.91,South,191,2.2,2.2,40,0.00,,---,0.00,VWS V14.01,2013-09-24 06:29:00,
2013-09-24 00:30:00,43.3,20.6,29.91,South,191,0.0,2.7,40,0.00,,---,0.00,VWS V14.01,2013-09-24 06:30:00,
2013-09-24 00:31:00,43.3,20.6,29.91,South,191,3.1,3.1,40,0.00,,---,0.00,VWS V14.01,2013-09-24 06:31:00,
2013-09-24 00:33:00,43.5,20.8,29.91,South,191,2.2,2.2,40,0.00,,---,0.00,VWS V14.01,2013-09-24 06:33:00,
2013-09-24 00:34:00,43.5,20.8,29.91,South,191,0.0,2.2,40,0.00,,---,0.00,VWS V14.01,2013-09-24 06:34:00,
2013-09-24 00:35:00,43.7,21.0,29.91,South,191,0.0,0.0,40,0.00,,---,0.00,VWS V14.01,2013-09-24 06:35:00,
2013-09-24 00:36:00,43.7,21.0,29.91,South,191,0.0,0.0,40,0.00,,---,0.00,VWS V14.01,2013-09-24 06:36:00,
2013-09-24 00:38:00,43.7,21.0,29.91,South,191,2.2,2.2,40,0.00,,---,0.00,VWS V14.01,2013-09-24 06:38:00,
2013-09-24 00:39:00,43.7,21.0,29.91,South,191,0.0,0.0,40,0.00,,---,0.00,VWS V14.01,2013-09-24 06:39:00,
2013-09-24 00:40:00,43.7,21.0,29.91,South,191,0.0,0.0,40,0.00,,---,0.00,VWS V14.01,2013-09-24 06:40:00,
2013-09-24 00:41:00,43.9,21.1,29.91,South,191,2.2,2.2,40,0.00,,---,0.00,VWS V14.01,2013-09-24 06:41:00,
2013-09-24 00:43:00,43.9,21.1,29.91,South,185,2.7,2.7,40,0.00,,---,0.00,VWS V14.01,2013-09-24 06:43:00,
2013-09-24 00:45:00,43.7,21.0,29.91,South,185,3.1,3.6,40,0.00,,---,0.00,VWS V14.01,2013-09-24 06:45:00,
2013-09-24 00:46:00,43.7,21.0,29.91,South,185,0.0,0.0,40,0.00,,---,0.00,VWS V14.01,2013-09-24 06:46:00,
2013-09-24 00:48:00,43.7,21.0,29.91,South,185,0.0,0.0,40,0.00,,---,0.00,VWS V14.01,2013-09-24 06:48:00,
2013-09-24 00:50:00,43.7,21.0,29.91,South,185,0.0,2.7,40,0.00,,---,0.00,VWS V14.01,2013-09-24 06:50:00,
2013-09-24 00:51:00,43.7,21.0,29.91,South,185,0.0,0.0,40,0.00,,---,0.00,VWS V14.01,2013-09-24 06:51:00,
2013-09-24 00:52:00,43.9,21.1,29.91,South,185,0.0,0.0,40,0.00,,---,0.00,VWS V14.01,2013-09-24 06:52:00,
2013-09-24 00:53:00,43.9,21.1,29.91,SSW,195,3.6,3.6,40,0.00,,---,0.00,VWS V14.01,2013-09-24 06:53:00,
2013-09-24 00:55:00,44.1,21.3,29.91,SSW,195,0.0,0.0,40,0.00,,---,0.00,VWS V14.01,2013-09-24 06:55:00,
2013-09-24 00:56:00,44.1,21.3,29.91,SSW,195,0.0,0.0,40,0.00,,---,0.00,VWS V14.01,2013-09-24 06:56:00,
2013-09-24 00:57:00,44.1,21.3,29.91,SSW,195,0.0,0.0,40,0.00,,---,0.00,VWS V14.01,2013-09-24 06:57:00,
2013-09-24 00:58:00,44.2,21.5,29.91,SSW,194,2.2,2.2,40,0.00,,---,0.00,VWS V14.01,2013-09-24 06:58:00,
2013-09-24 01:00:00,44.4,21.6,29.91,SSW,193,2.7,3.1,40,0.00,,---,0.00,VWS V14.01,2013-09-24 07:00:00,
2013-09-24 01:01:00,44.4,21.6,29.91,SSW,193,2.7,2.7,40,0.00,,---,0.00,VWS V14.01,2013-09-24 07:01:00,
2013-09-24 01:02:00,44.6,21.2,29.91,SSW,193,2.2,2.7,39,0.00,,---,0.00,VWS V14.01,2013-09-24 07:02:00,
2013-09-24 01:03:00,44.6,21.2,29.91,SSW,193,0.0,2.2,39,0.00,,---,0.00,VWS V14.01,2013-09-24 07:03:00,
2013-09-24 01:05:00,44.8,21.4,29.91,SSW,193,0.0,0.0,39,0.00,,---,0.00,VWS V14.01,2013-09-24 07:05:00,
2013-09-24 01:06:00,44.8,21.4,29.91,SSW,193,0.0,0.0,39,0.00,,---,0.00,VWS V14.01,2013-09-24 07:06:00,
2013-09-24 01:07:00,44.8,21.4,29.91,SSW,193,0.0,2.7,39,0.00,,---,0.00,VWS V14.01,2013-09-24 07:07:00,
2013-09-24 01:08:00,45.0,21.5,29.91,SSW,193,0.0,0.0,39,0.00,,---,0.00,VWS V14.01,2013-09-24 07:08:00,
2013-09-24 01:11:00,45.1,21.7,29.91,SSW,193,0.0,0.0,39,0.00,,---,0.00,VWS V14.01,2013-09-24 07:11:00,
2013-09-24 01:12:00,45.3,21.8,29.91,SSW,193,0.0,0.0,39,0.00,,---,0.00,VWS V14.01,2013-09-24 07:12:00,
2013-09-24 01:13:00,45.3,21.8,29.91,SSW,193,0.0,0.0,39,0.00,,---,0.00,VWS V14.01,2013-09-24 07:13:00,
2013-09-24 01:16:00,45.5,22.0,29.91,SSW,193,0.0,0.0,39,0.00,,---,0.00,VWS V14.01,2013-09-24 07:16:00,
2013-09-24 01:17:00,45.5,22.0,29.91,SSW,193,0.0,0.0,39,0.00,,---,0.00,VWS V14.01,2013-09-24 07:17:00,
2013-09-24 01:18:00,45.5,22.0,29.91,SSW,193,0.0,0.0,39,0.00,,---,0.00,VWS V14.01,2013-09-24 07:18:00,
2013-09-24 01:21:00,45.5,22.0,29.91,SSW,193,0.0,0.0,39,0.00,,---,0.00,VWS V14.01,2013-09-24 07:21:00,
2013-09-24 01:22:00,45.5,22.0,29.91,SSW,193,0.0,0.0,39,0.00,,---,0.00,VWS V14.01,2013-09-24 07:22:00,
2013-09-24 01:23:00,45.5,22.0,29.91,SSW,193,0.0,0.0,39,0.00,,---,0.00,VWS V14.01,2013-09-24 07:23:00,
2013-09-24 01:24:00,45.5,21.4,29.91,SSW,193,0.0,0.0,38,0.00,,---,0.00,VWS V14.01,2013-09-24 07:24:00,
2013-09-24 01:26:00,45.5,21.4,29.91,SSW,193,0.0,0.0,38,0.00,,---,0.00,VWS V14.01,2013-09-24 07:26:00,
2013-09-24 01:27:00,45.5,21.4,29.91,SSW,193,0.0,0.0,38,0.00,,---,0.00,VWS V14.01,2013-09-24 07:27:00,
2013-09-24 01:28:00,45.5,21.4,29.91,SSW,193,0.0,0.0,38,0.00,,---,0.00,VWS V14.01,2013-09-24 07:28:00,
2013-09-24 01:29:00,45.5,22.0,29.91,SSW,193,0.0,0.0,39,0.00,,---,0.00,VWS V14.01,2013-09-24 07:29:00,
2013-09-24 01:31:00,45.5,21.4,29.91,SSW,193,0.0,0.0,38,0.00,,---,0.00,VWS V14.01,2013-09-24 07:31:00,
2013-09-24 01:32:00,45.5,21.4,29.91,SSW,193,0.0,0.0,38,0.00,,---,0.00,VWS V14.01,2013-09-24 07:32:00,
2013-09-24 01:33:00,45.7,21.5,29.91,SSW,193,0.0,0.0,38,0.00,,---,0.00,VWS V14.01,2013-09-24 07:33:00,
2013-09-24 01:34:00,45.7,21.5,29.91,SSW,193,0.0,0.0,38,0.00,,---,0.00,VWS V14.01,2013-09-24 07:34:00,
2013-09-24 01:37:00,45.9,21.7,29.91,SSW,193,0.0,0.0,38,0.00,,---,0.00,VWS V14.01,2013-09-24 07:37:00,
2013-09-24 01:38:00,46.0,21.9,29.91,SSW,193,0.0,0.0,38,0.00,,---,0.00,VWS V14.01,2013-09-24 07:38:00,
2013-09-24 01:39:00,46.0,21.9,29.91,SSW,193,0.0,0.0,38,0.00,,---,0.00,VWS V14.01,2013-09-24 07:39:00,
2013-09-24 01:42:00,46.2,22.0,29.91,SSW,193,0.0,0.0,38,0.00,,---,0.00,VWS V14.01,2013-09-24 07:42:00,
2013-09-24 01:43:00,46.2,22.0,29.91,SSW,193,0.0,0.0,38,0.00,,---,0.00,VWS V14.01,2013-09-24 07:43:00,
2013-09-24 01:44:00,46.2,22.0,29.91,SSW,193,0.0,0.0,38,0.00,,---,0.00,VWS V14.01,2013-09-24 07:44:00,
2013-09-24 01:45:00,46.2,22.0,29.91,SSW,193,0.0,0.0,38,0.00,,---,0.00,VWS V14.01,2013-09-24 07:45:00,
2013-09-24 01:47:00,46.4,21.6,29.91,SSW,193,0.0,0.0,37,0.00,,---,0.00,VWS V14.01,2013-09-24 07:47:00,
2013-09-24 01:48:00,46.4,21.6,29.91,SSW,193,0.0,0.0,37,0.00,,---,0.00,VWS V14.01,2013-09-24 07:48:00,
2013-09-24 01:49:00,46.4,21.6,29.91,SSW,193,0.0,0.0,37,0.00,,---,0.00,VWS V14.01,2013-09-24 07:49:00,
2013-09-24 01:50:00,46.4,21.6,29.91,SSW,193,0.0,0.0,37,0.00,,---,0.00,VWS V14.01,2013-09-24 07:50:00,
2013-09-24 01:53:00,46.4,22.2,29.91,SSW,193,0.0,2.2,38,0.00,,---,0.00,VWS V14.01,2013-09-24 07:53:00,
2013-09-24 01:54:00,46.4,22.2,29.91,SSW,193,0.0,0.0,38,0.00,,---,0.00,VWS V14.01,2013-09-24 07:54:00,
2013-09-24 01:55:00,46.2,22.0,29.91,SSW,193,0.0,0.0,38,0.00,,---,0.00,VWS V14.01,2013-09-24 07:55:00,
2013-09-24 01:58:00,46.0,21.9,29.91,SSW,193,0.0,0.0,38,0.00,,---,0.00,VWS V14.01,2013-09-24 07:58:00,
2013-09-24 01:59:00,46.0,21.9,29.91,SSW,193,0.0,0.0,38,0.00,,---,0.00,VWS V14.01,2013-09-24 07:59:00,
2013-09-24 02:00:00,46.0,21.9,29.91,SSW,193,0.0,0.0,38,0.00,,---,0.00,VWS V14.01,2013-09-24 08:00:00,
2013-09-24 02:03:00,46.0,21.9,29.91,SSW,193,0.0,0.0,38,0.00,,---,0.00,VWS V14.01,2013-09-24 08:03:00,
2013-09-24 02:04:00,46.0,21.9,29.91,SSW,193,0.0,0.0,38,0.00,,---,0.00,VWS V14.01,2013-09-24 08:04:00,
2013-09-24 02:05:00,46.0,21.9,29.91,SSW,193,0.0,0.0,38,0.00,,---,0.00,VWS V14.01,2013-09-24 08:05:00,
2013-09-24 02:08:00,46.2,22.0,29.91,SSW,193,0.0,0.0,38,0.00,,---,0.00,VWS V14.01,2013-09-24 08:08:00,
2013-09-24 02:09:00,46.2,22.0,29.91,SSW,193,0.0,0.0,38,0.00,,---,0.00,VWS V14.01,2013-09-24 08:09:00,
2013-09-24 02:11:00,46.4,21.6,29.91,SSW,193,0.0,0.0,37,0.00,,---,0.00,VWS V14.01,2013-09-24 08:11:00,
2013-09-24 02:13:00,46.4,22.2,29.91,SSW,193,2.7,4.0,38,0.00,,---,0.00,VWS V14.01,2013-09-24 08:13:00,
2013-09-24 02:14:00,46.2,22.0,29.91,SSW,193,0.0,3.1,38,0.00,,---,0.00,VWS V14.01,2013-09-24 08:14:00,
2013-09-24 02:16:00,46.2,22.0,29.91,SSW,193,0.0,0.0,38,0.00,,---,0.00,VWS V14.01,2013-09-24 08:16:00,
2013-09-24 02:18:00,46.0,21.9,29.91,SSW,193,0.0,0.0,38,0.00,,---,0.00,VWS V14.01,2013-09-24 08:18:00,
2013-09-24 02:19:00,46.0,21.9,29.91,SSW,193,0.0,0.0,38,0.00,,---,0.00,VWS V14.01,2013-09-24 08:19:00,
2013-09-24 02:21:00,46.0,21.9,29.91,SSW,193,0.0,0.0,38,0.00,,---,0.00,VWS V14.01,2013-09-24 08:21:00,
2013-09-24 02:23:00,46.0,21.9,29.91,SSW,193,2.7,2.7,38,0.00,,---,0.00,VWS V14.01,2013-09-24 08:23:00,
2013-09-24 02:24:00,46.0,21.9,29.91,SSW,193,2.7,2.7,38,0.00,,---,0.00,VWS V14.01,2013-09-24 08:24:00,
2013-09-24 02:25:00,46.0,21.9,29.91,SSW,193,0.0,0.0,38,0.00,,---,0.00,VWS V14.01,2013-09-24 08:25:00,
2013-09-24 02:26:00,45.9,21.7,29.91,South,185,2.7,2.7,38,0.00,,---,0.00,VWS V14.01,2013-09-24 08:26:00,
2013-09-24 02:29:00,45.7,21.5,29.91,SSW,194,2.7,3.6,38,0.00,,---,0.00,VWS V14.01,2013-09-24 08:29:00,
2013-09-24 02:30:00,45.7,21.5,29.91,SSW,196,4.0,4.0,38,0.00,,---,0.00,VWS V14.01,2013-09-24 08:30:00,
2013-09-24 02:31:00,45.7,21.5,29.91,SSW,196,3.1,3.6,38,0.00,,---,0.00,VWS V14.01,2013-09-24 08:31:00,
2013-09-24 02:34:00,45.9,21.7,29.91,SSW,195,3.6,3.6,38,0.00,,---,0.00,VWS V14.01,2013-09-24 08:34:00,
2013-09-24 02:35:00,45.9,21.7,29.91,SSW,197,3.6,4.0,38,0.00,,---,0.00,VWS V14.01,2013-09-24 08:35:00,
2013-09-24 02:36:00,46.0,21.9,29.91,SSW,197,3.6,3.6,38,0.00,,---,0.00,VWS V14.01,2013-09-24 08:36:00,
2013-09-24 02:39:00,46.2,22.0,29.91,South,185,2.7,2.7,38,0.00,,---,0.00,VWS V14.01,2013-09-24 08:39:00,
2013-09-24 02:40:00,46.2,22.0,29.91,South,185,2.7,2.7,38,0.00,,---,0.00,VWS V14.01,2013-09-24 08:40:00,
2013-09-24 02:41:00,46.2,22.0,29.91,South,185,0.0,2.2,38,0.00,,---,0.00,VWS V14.01,2013-09-24 08:41:00,
2013-09-24 02:44:00,46.0,21.9,29.91,South,185,0.0,2.7,38,0.00,,---,0.00,VWS V14.01,2013-09-24 08:44:00,
2013-09-24 02:45:00,46.0,21.9,29.91,South,185,0.0,2.2,38,0.00,,---,0.00,VWS V14.01,2013-09-24 08:45:00,
2013-09-24 02:47:00,46.0,21.9,29.91,South,185,2.2,2.2,38,0.00,,---,0.00,VWS V14.01,2013-09-24 08:47:00,
2013-09-24 02:49:00,46.2,22.0,29.91,South,185,2.7,3.1,38,0.00,,---,0.00,VWS V14.01,2013-09-24 08:49:00,
2013-09-24 02:50:00,46.2,22.0,29.91,SSW,195,2.7,3.1,38,0.00,,---,0.00,VWS V14.01,2013-09-24 08:50:00,
2013-09-24 02:52:00,46.8,22.5,29.91,SSW,194,3.1,3.1,38,0.00,,---,0.00,VWS V14.01,2013-09-24 08:52:00,
2013-09-24 02:54:00,46.9,22.0,29.91,South,185,2.7,2.7,37,0.00,,---,0.00,VWS V14.01,2013-09-24 08:54:00,
2013-09-24 02:55:00,46.9,22.0,29.91,South,185,2.2,2.7,37,0.00,,---,0.00,VWS V14.01,2013-09-24 08:55:00,
2013-09-24 02:57:00,46.8,22.5,29.91,South,185,0.0,0.0,38,0.00,,---,0.00,VWS V14.01,2013-09-24 08:57:00,
2013-09-24 02:59:00,46.0,21.9,29.91,South,185,0.0,0.0,38,0.00,,---,0.00,VWS V14.01,2013-09-24 08:59:00,
2013-09-24 03:00:00,46.0,21.9,29.91,South,185,0.0,0.0,38,0.00,,---,0.00,VWS V14.01,2013-09-24 09:00:00,
2013-09-24 03:02:00,45.1,21.7,29.91,South,185,0.0,0.0,39,0.00,,---,0.00,VWS V14.01,2013-09-24 09:02:00,
2013-09-24 03:04:00,44.4,21.6,29.91,South,185,2.7,3.1,40,0.00,,---,0.00,VWS V14.01,2013-09-24 09:04:00,
2013-09-24 03:05:00,44.2,21.5,29.91,South,185,3.1,3.1,40,0.00,,---,0.00,VWS V14.01,2013-09-24 09:05:00,
2013-09-24 03:06:00,44.1,21.3,29.91,South,185,3.1,3.1,40,0.00,,---,0.00,VWS V14.01,2013-09-24 09:06:00,
2013-09-24 03:07:00,43.9,21.1,29.91,South,185,2.7,3.6,40,0.00,,---,0.00,VWS V14.01,2013-09-24 09:07:00,
2013-09-24 03:10:00,43.9,21.1,29.91,South,185,2.7,3.1,40,0.00,,---,0.00,VWS V14.01,2013-09-24 09:10:00,
2013-09-24 03:11:00,44.1,21.3,29.91,South,185,3.1,3.1,40,0.00,,---,0.00,VWS V14.01,2013-09-24 09:11:00,
2013-09-24 03:12:00,44.6,21.2,29.91,South,185,3.1,3.1,39,0.00,,---,0.00,VWS V14.01,2013-09-24 09:12:00,
2013-09-24 03:15:00,45.5,22.0,29.91,South,185,2.7,2.7,39,0.00,,---,0.00,VWS V14.01,2013-09-24 09:15:00,
2013-09-24 03:16:00,45.7,22.2,29.91,South,185,2.2,2.7,39,0.00,,---,0.00,VWS V14.01,2013-09-24 09:16:00,
2013-09-24 03:17:00,46.0,21.9,29.91,South,185,3.1,3.1,38,0.00,,---,0.00,VWS V14.01,2013-09-24 09:17:00,
2013-09-24 03:20:00,46.4,22.2,29.91,South,185,2.2,2.2,38,0.00,,---,0.00,VWS V14.01,2013-09-24 09:20:00,
2013-09-24 03:21:00,46.6,22.4,29.91,South,185,2.7,2.7,38,0.00,,---,0.00,VWS V14.01,2013-09-24 09:21:00,
2013-09-24 03:22:00,46.8,22.5,29.91,South,185,3.1,3.1,38,0.00,,---,0.00,VWS V14.01,2013-09-24 09:22:00,
2013-09-24 03:25:00,46.8,21.9,29.91,South,185,2.2,2.2,37,0.00,,---,0.00,VWS V14.01,2013-09-24 09:25:00,
2013-09-24 03:26:00,46.8,21.9,29.91,South,185,2.2,2.7,37,0.00,,---,0.00,VWS V14.01,2013-09-24 09:26:00,
2013-09-24 03:27:00,46.8,21.9,29.91,South,185,0.0,2.2,37,0.00,,---,0.00,VWS V14.01,2013-09-24 09:27:00,
2013-09-24 03:30:00,46.8,21.9,29.91,South,185,2.7,2.7,37,0.00,,---,0.00,VWS V14.01,2013-09-24 09:30:00,
2013-09-24 03:31:00,46.8,21.9,29.91,South,185,2.2,2.7,37,0.00,,---,0.00,VWS V14.01,2013-09-24 09:31:00,
2013-09-24 03:32:00,46.8,21.9,29.91,South,185,2.2,2.7,37,0.00,,---,0.00,VWS V14.01,2013-09-24 09:32:00,
2013-09-24 03:33:00,46.6,21.7,29.91,South,185,0.0,2.2,37,0.00,,---,0.00,VWS V14.01,2013-09-24 09:33:00,
2013-09-24 03:35:00,46.6,21.7,29.91,South,185,0.0,2.2,37,0.00,,---,0.00,VWS V14.01,2013-09-24 09:35:00,
2013-09-24 03:36:00,46.6,21.7,29.91,South,185,0.0,0.0,37,0.00,,---,0.00,VWS V14.01,2013-09-24 09:36:00,
2013-09-24 03:37:00,46.6,21.7,29.91,South,185,0.0,0.0,37,0.00,,---,0.00,VWS V14.01,2013-09-24 09:37:00,
2013-09-24 03:38:00,46.6,21.7,29.91,South,185,0.0,2.2,37,0.00,,---,0.00,VWS V14.01,2013-09-24 09:38:00,
2013-09-24 03:40:00,46.6,21.7,29.91,South,185,0.0,0.0,37,0.00,,---,0.00,VWS V14.01,2013-09-24 09:40:00,
2013-09-24 03:41:00,46.6,21.7,29.91,South,185,2.2,2.2,37,0.00,,---,0.00,VWS V14.01,2013-09-24 09:41:00,
2013-09-24 03:42:00,46.6,21.7,29.91,South,185,2.7,2.7,37,0.00,,---,0.00,VWS V14.01,2013-09-24 09:42:00,
2013-09-24 03:44:00,46.8,21.9,29.91,South,185,3.6,3.6,37,0.00,,---,0.00,VWS V14.01,2013-09-24 09:44:00,
2013-09-24 03:45:00,46.8,21.9,29.91,South,185,0.0,3.6,37,0.00,,---,0.00,VWS V14.01,2013-09-24 09:45:00,
2013-09-24 03:46:00,46.9,22.0,29.91,South,185,0.0,2.2,37,0.00,,---,0.00,VWS V14.01,2013-09-24 09:46:00,
2013-09-24 03:47:00,46.9,22.0,29.91,South,185,0.0,0.0,37,0.00,,---,0.00,VWS V14.01,2013-09-24 09:47:00,
2013-09-24 03:49:00,46.9,22.0,29.91,South,185,0.0,0.0,37,0.00,,---,0.00,VWS V14.01,2013-09-24 09:49:00,
2013-09-24 03:50:00,46.8,21.9,29.91,South,185,0.0,0.0,37,0.00,,---,0.00,VWS V14.01,2013-09-24 09:50:00,
2013-09-24 03:51:00,46.8,21.9,29.91,South,185,2.2,2.2,37,0.00,,---,0.00,VWS V14.01,2013-09-24 09:51:00,
2013-09-24 03:52:00,46.6,22.4,29.91,South,185,2.2,2.2,38,0.00,,---,0.00,VWS V14.01,2013-09-24 09:52:00,
2013-09-24 03:54:00,46.4,22.2,29.91,South,185,0.0,0.0,38,0.00,,---,0.00,VWS V14.01,2013-09-24 09:54:00,
2013-09-24 03:55:00,46.0,21.9,29.91,South,185,0.0,0.0,38,0.00,,---,0.00,VWS V14.01,2013-09-24 09:55:00,
2013-09-24 03:56:00,46.0,21.9,29.91,South,185,0.0,0.0,38,0.00,,---,0.00,VWS V14.01,2013-09-24 09:56:00,
2013-09-24 03:57:00,45.9,21.7,29.91,South,185,0.0,0.0,38,0.00,,---,0.00,VWS V14.01,2013-09-24 09:57:00,
2013-09-24 03:58:00,45.9,21.7,29.91,South,185,2.2,2.2,38,0.00,,---,0.00,VWS V14.01,2013-09-24 09:58:00,
2013-09-24 03:59:00,45.5,21.4,29.88,South,185,0.0,2.2,38,0.00,,---,0.00,VWS V14.01,2013-09-24 09:59:00,
2013-09-24 04:00:00,45.3,21.2,29.88,South,185,0.0,0.0,38,0.00,,---,0.00,VWS V14.01,2013-09-24 10:00:00,
2013-09-24 04:01:00,45.3,21.2,29.88,South,185,2.2,2.2,38,0.00,,---,0.00,VWS V14.01,2013-09-24 10:01:00,
2013-09-24 04:02:00,45.3,21.2,29.88,South,185,2.2,2.7,38,0.00,,---,0.00,VWS V14.01,2013-09-24 10:02:00,
2013-09-24 04:03:00,45.1,21.1,29.88,South,185,0.0,2.2,38,0.00,,---,0.00,VWS V14.01,2013-09-24 10:03:00,
2013-09-24 04:04:00,45.1,21.1,29.88,South,185,0.0,0.0,38,0.00,,---,0.00,VWS V14.01,2013-09-24 10:04:00,
2013-09-24 04:06:00,45.0,20.9,29.88,South,185,0.0,0.0,38,0.00,,---,0.00,VWS V14.01,2013-09-24 10:06:00,
2013-09-24 04:07:00,44.8,20.7,29.88,South,185,0.0,0.0,38,0.00,,---,0.00,VWS V14.01,2013-09-24 10:07:00,
2013-09-24 04:08:00,44.6,20.6,29.88,South,185,0.0,0.0,38,0.00,,---,0.00,VWS V14.01,2013-09-24 10:08:00,
2013-09-24 04:09:00,44.6,20.6,29.88,South,185,0.0,0.0,38,0.00,,---,0.00,VWS V14.01,2013-09-24 10:09:00,
2013-09-24 04:11:00,44.4,21.0,29.88,South,185,0.0,2.2,39,0.00,,---,0.00,VWS V14.01,2013-09-24 10:11:00,
2013-09-24 04:12:00,44.2,20.9,29.88,South,185,0.0,0.0,39,0.00,,---,0.00,VWS V14.01,2013-09-24 10:12:00,
2013-09-24 04:13:00,44.2,20.9,29.88,South,185,0.0,0.0,39,0.00,,---,0.00,VWS V14.01,2013-09-24 10:13:00,
2013-09-24 04:14:00,44.1,20.7,29.88,South,185,2.2,2.2,39,0.00,,---,0.00,VWS V14.01,2013-09-24 10:14:00,
2013-09-24 04:16:00,44.1,20.7,29.88,South,185,0.0,0.0,39,0.00,,---,0.00,VWS V14.01,2013-09-24 10:16:00,
2013-09-24 04:18:00,43.7,20.4,29.88,South,185,0.0,0.0,39,0.00,,---,0.00,VWS V14.01,2013-09-24 10:18:00,
2013-09-24 04:19:00,43.5,20.2,29.88,South,185,0.0,0.0,39,0.00,,---,0.00,VWS V14.01,2013-09-24 10:19:00,
2013-09-24 04:21:00,43.3,20.6,29.88,South,185,2.7,2.7,40,0.00,,---,0.00,VWS V14.01,2013-09-24 10:21:00,
2013-09-24 04:23:00,43.3,20.6,29.88,South,185,2.2,3.6,40,0.00,,---,0.00,VWS V14.01,2013-09-24 10:23:00,
2013-09-24 04:24:00,43.3,20.6,29.88,South,185,2.2,2.7,40,0.00,,---,0.00,VWS V14.01,2013-09-24 10:24:00,
2013-09-24 04:26:00,43.5,20.8,29.88,South,185,2.2,2.2,40,0.00,,---,0.00,VWS V14.01,2013-09-24 10:26:00,
2013-09-24 04:29:00,43.5,20.8,29.88,South,185,0.0,2.2,40,0.00,,---,0.00,VWS V14.01,2013-09-24 10:29:00,
2013-09-24 04:31:00,43.3,20.6,29.88,South,185,2.2,3.1,40,0.00,,---,0.00,VWS V14.01,2013-09-24 10:31:00,
2013-09-24 04:32:00,43.3,20.6,29.88,South,185,2.2,2.2,40,0.00,,---,0.00,VWS V14.01,2013-09-24 10:32:00,
2013-09-24 04:34:00,43.0,20.3,29.88,South,185,2.2,2.2,40,0.00,,---,0.00,VWS V14.01,2013-09-24 10:34:00,
2013-09-24 04:36:00,42.8,20.8,29.88,South,185,2.2,2.7,41,0.00,,---,0.00,VWS V14.01,2013-09-24 10:36:00,
2013-09-24 04:37:00,42.8,20.8,29.88,South,185,0.0,2.2,41,0.00,,---,0.00,VWS V14.01,2013-09-24 10:37:00,
2013-09-24 04:39:00,42.4,20.4,29.88,South,185,0.0,2.7,41,0.00,,---,0.00,VWS V14.01,2013-09-24 10:39:00,
2013-09-24 04:40:00,42.4,20.4,29.88,South,185,2.2,2.2,41,0.00,,---,0.00,VWS V14.01,2013-09-24 10:40:00,
2013-09-24 04:41:00,42.3,20.3,29.88,South,181,2.2,3.1,41,0.00,,---,0.00,VWS V14.01,2013-09-24 10:41:00,
2013-09-24 04:42:00,42.3,20.3,29.88,South,181,0.0,3.1,41,0.00,,---,0.00,VWS V14.01,2013-09-24 10:42:00,
2013-09-24 04:44:00,41.9,19.9,29.88,South,181,0.0,0.0,41,0.00,,---,0.00,VWS V14.01,2013-09-24 10:44:00,
2013-09-24 04:45:00,41.7,19.8,29.88,South,181,0.0,0.0,41,0.00,,---,0.00,VWS V14.01,2013-09-24 10:45:00,
2013-09-24 04:46:00,41.7,19.8,29.88,South,181,2.2,2.2,41,0.00,,---,0.00,VWS V14.01,2013-09-24 10:46:00,
2013-09-24 04:47:00,41.5,20.2,29.88,South,181,0.0,2.2,42,0.00,,---,0.00,VWS V14.01,2013-09-24 10:47:00,
2013-09-24 04:49:00,41.4,20.0,29.88,South,181,0.0,2.2,42,0.00,,---,0.00,VWS V14.01,2013-09-24 10:49:00,
2013-09-24 04:50:00,41.2,19.9,29.88,South,181,0.0,2.2,42,0.00,,---,0.00,VWS V14.01,2013-09-24 10:50:00,
2013-09-24 04:51:00,41.2,19.9,29.88,South,181,0.0,2.2,42,0.00,,---,0.00,VWS V14.01,2013-09-24 10:51:00,
2013-09-24 04:52:00,41.0,19.7,29.88,South,181,2.2,2.2,42,0.00,,---,0.00,VWS V14.01,2013-09-24 10:52:00,
2013-09-24 04:54:00,40.8,20.1,29.88,South,181,0.0,2.2,43,0.00,,---,0.00,VWS V14.01,2013-09-24 10:54:00,
2013-09-24 04:55:00,40.8,20.1,29.88,South,181,0.0,2.2,43,0.00,,---,0.00,VWS V14.01,2013-09-24 10:55:00,
2013-09-24 04:56:00,40.8,20.1,29.88,South,181,0.0,2.2,43,0.00,,---,0.00,VWS V14.01,2013-09-24 10:56:00,
2013-09-24 04:57:00,40.6,19.9,29.88,South,181,2.7,2.7,43,0.00,,---,0.00,VWS V14.01,2013-09-24 10:57:00,
2013-09-24 05:00:00,40.6,20.5,29.88,South,181,2.2,2.2,44,0.00,,---,0.00,VWS V14.01,2013-09-24 11:00:00,
2013-09-24 05:01:00,40.6,20.5,29.88,South,181,2.7,2.7,44,0.00,,---,0.00,VWS V14.01,2013-09-24 11:01:00,
2013-09-24 05:02:00,40.6,20.5,29.88,South,180,2.2,2.7,44,0.00,,---,0.00,VWS V14.01,2013-09-24 11:02:00,
2013-09-24 05:05:00,40.6,20.5,29.88,South,180,2.2,2.2,44,0.00,,---,0.00,VWS V14.01,2013-09-24 11:05:00,
2013-09-24 05:06:00,40.5,20.3,29.88,SSE,164,3.6,3.6,44,0.00,,---,0.00,VWS V14.01,2013-09-24 11:06:00,
2013-09-24 05:07:00,40.5,20.3,29.88,SSE,164,2.2,2.7,44,0.00,,---,0.00,VWS V14.01,2013-09-24 11:07:00,
2013-09-24 05:10:00,40.3,20.6,29.88,SSE,157,0.0,2.2,45,0.00,,---,0.00,VWS V14.01,2013-09-24 11:10:00,
2013-09-24 05:11:00,40.3,20.6,29.88,SSE,157,0.0,0.0,45,0.00,,---,0.00,VWS V14.01,2013-09-24 11:11:00,
2013-09-24 05:12:00,40.3,20.6,29.88,SSE,157,0.0,0.0,45,0.00,,---,0.00,VWS V14.01,2013-09-24 11:12:00,
2013-09-24 05:15:00,40.1,21.5,29.88,South,186,3.6,3.6,47,0.00,,---,0.00,VWS V14.01,2013-09-24 11:15:00,
2013-09-24 05:16:00,40.1,21.5,29.88,SSW,203,3.1,4.9,47,0.00,,---,0.00,VWS V14.01,2013-09-24 11:16:00,
2013-09-24 05:17:00,40.1,21.5,29.88,SSW,199,2.7,4.0,47,0.00,,---,0.00,VWS V14.01,2013-09-24 11:17:00,
2013-09-24 05:20:00,40.3,21.7,29.88,SSW,197,0.0,0.0,47,0.00,,---,0.00,VWS V14.01,2013-09-24 11:20:00,
2013-09-24 05:21:00,40.3,21.7,29.88,SSW,197,2.2,2.7,47,0.00,,---,0.00,VWS V14.01,2013-09-24 11:21:00,
2013-09-24 05:22:00,40.3,21.7,29.88,SSW,197,2.7,2.7,47,0.00,,---,0.00,VWS V14.01,2013-09-24 11:22:00,
2013-09-24 05:25:00,40.5,21.8,29.88,SSW,197,0.0,0.0,47,0.00,,---,0.00,VWS V14.01,2013-09-24 11:25:00,
2013-09-24 05:26:00,40.6,22.0,29.88,SSW,197,2.2,2.2,47,0.00,,---,0.00,VWS V14.01,2013-09-24 11:26:00,
2013-09-24 05:27:00,40.6,22.0,29.88,SSW,197,2.2,2.2,47,0.00,,---,0.00,VWS V14.01,2013-09-24 11:27:00,
2013-09-24 05:30:00,40.6,21.5,29.88,SSW,197,0.0,2.2,46,0.00,,---,0.00,VWS V14.01,2013-09-24 11:30:00,
2013-09-24 05:32:00,40.6,21.5,29.88,SSW,197,2.2,2.2,46,0.00,,---,0.00,VWS V14.01,2013-09-24 11:32:00,
2013-09-24 05:35:00,40.8,21.7,29.88,SSW,197,0.0,0.0,46,0.00,,---,0.00,VWS V14.01,2013-09-24 11:35:00,
2013-09-24 05:37:00,40.8,21.7,29.88,SSW,197,0.0,0.0,46,0.00,,---,0.00,VWS V14.01,2013-09-24 11:37:00,
2013-09-24 05:38:00,40.8,21.7,29.88,SSW,197,0.0,0.0,46,0.00,,---,0.00,VWS V14.01,2013-09-24 11:38:00,
2013-09-24 05:40:00,40.8,21.7,29.88,SSW,197,0.0,0.0,46,0.00,,---,0.00,VWS V14.01,2013-09-24 11:40:00,
2013-09-24 05:42:00,41.0,21.3,29.88,SSW,197,3.6,3.6,45,0.00,,---,0.00,VWS V14.01,2013-09-24 11:42:00,
2013-09-24 05:43:00,41.0,21.3,29.88,SSW,197,3.1,3.6,45,0.00,,---,0.00,VWS V14.01,2013-09-24 11:43:00,
2013-09-24 05:45:00,41.2,21.5,29.88,SSW,196,2.7,2.7,45,0.00,,---,0.00,VWS V14.01,2013-09-24 11:45:00,
2013-09-24 05:47:00,41.2,21.5,29.88,SSW,196,2.2,2.2,45,0.00,,---,0.00,VWS V14.01,2013-09-24 11:47:00,
2013-09-24 05:48:00,41.0,21.3,29.88,SSW,196,3.1,3.1,45,0.00,,---,0.00,VWS V14.01,2013-09-24 11:48:00,
2013-09-24 05:50:00,41.0,21.3,29.88,SSW,197,0.0,0.0,45,0.00,,---,0.00,VWS V14.01,2013-09-24 11:50:00,
2013-09-24 05:52:00,41.0,20.8,29.88,SSW,197,0.0,0.0,44,0.00,,---,0.00,VWS V14.01,2013-09-24 11:52:00,
2013-09-24 05:53:00,40.8,21.1,29.88,SSW,197,0.0,0.0,45,0.00,,---,0.00,VWS V14.01,2013-09-24 11:53:00,
2013-09-24 05:56:00,40.6,21.0,29.88,SSW,197,2.7,2.7,45,0.00,,---,0.00,VWS V14.01,2013-09-24 11:56:00,
2013-09-24 05:57:00,40.5,21.3,29.88,SSW,197,2.7,2.7,46,0.00,,---,0.00,VWS V14.01,2013-09-24 11:57:00,
2013-09-24 05:58:00,40.5,21.3,29.88,SSW,197,2.2,2.7,46,0.00,,---,0.00,VWS V14.01,2013-09-24 11:58:00,
2013-09-24 05:59:00,40.5,21.3,29.88,SSW,196,3.1,3.1,46,0.00,,---,0.00,VWS V14.01,2013-09-24 11:59:00,
2013-09-24 06:01:00,40.5,21.3,29.88,SSW,197,3.1,3.1,46,0.00,,---,0.00,VWS V14.01,2013-09-24 12:01:00,
2013-09-24 06:03:00,40.5,21.3,29.88,SSW,197,2.2,2.7,46,0.00,,---,0.00,VWS V14.01,2013-09-24 12:03:00,
2013-09-24 06:04:00,40.3,21.2,29.88,SSW,197,2.2,2.2,46,0.00,,---,0.00,VWS V14.01,2013-09-24 12:04:00,
2013-09-24 06:06:00,40.3,21.2,29.88,SSW,197,2.7,2.7,46,0.00,,---,0.00,VWS V14.01,2013-09-24 12:06:00,
2013-09-24 06:08:00,40.3,21.2,29.88,SSW,197,3.1,3.1,46,0.00,,---,0.00,VWS V14.01,2013-09-24 12:08:00,
2013-09-24 06:09:00,40.5,21.3,29.88,SSW,197,2.7,3.1,46,0.00,,---,0.00,VWS V14.01,2013-09-24 12:09:00,
2013-09-24 06:11:00,40.6,21.5,29.88,SSW,197,2.2,2.2,46,0.00,,---,0.00,VWS V14.01,2013-09-24 12:11:00,
2013-09-24 06:13:00,40.6,21.5,29.88,SSW,197,0.0,2.2,46,0.00,,---,0.00,VWS V14.01,2013-09-24 12:13:00,
2013-09-24 06:14:00,40.8,21.1,29.88,SSW,197,0.0,0.0,45,0.00,,---,0.00,VWS V14.01,2013-09-24 12:14:00,
2013-09-24 06:15:00,40.8,21.1,29.85,SSW,197,0.0,0.0,45,0.00,,---,0.00,VWS V14.01,2013-09-24 12:15:00,
2013-09-24 06:16:00,40.8,21.1,29.85,SSW,197,0.0,0.0,45,0.00,,---,0.00,VWS V14.01,2013-09-24 12:16:00,
2013-09-24 06:19:00,41.0,21.3,29.85,SSW,197,0.0,0.0,45,0.00,,---,0.00,VWS V14.01,2013-09-24 12:19:00,
2013-09-24 06:20:00,41.0,21.3,29.85,SSW,197,2.2,2.2,45,0.00,,---,0.00,VWS V14.01,2013-09-24 12:20:00,
2013-09-24 06:22:00,40.8,21.1,29.85,SSW,197,0.0,0.0,45,0.00,,---,0.00,VWS V14.01,2013-09-24 12:22:00,
2013-09-24 06:24:00,41.0,21.3,29.85,SSW,197,2.7,2.7,45,0.00,,---,0.00,VWS V14.01,2013-09-24 12:24:00,
2013-09-24 06:25:00,41.0,21.3,29.85,South,191,2.7,2.7,45,0.00,,---,0.00,VWS V14.01,2013-09-24 12:25:00,
2013-09-24 06:27:00,40.6,21.0,29.85,South,190,2.2,2.2,45,0.00,,---,0.00,VWS V14.01,2013-09-24 12:27:00,
2013-09-24 06:29:00,40.5,20.8,29.85,South,190,2.7,2.7,45,0.00,,---,0.00,VWS V14.01,2013-09-24 12:29:00,
2013-09-24 06:30:00,40.5,20.8,29.88,South,187,3.6,4.0,45,0.00,,---,0.00,VWS V14.01,2013-09-24 12:30:00,
2013-09-24 06:32:00,40.1,21.0,29.88,SSW,194,2.7,3.6,46,0.00,,---,0.00,VWS V14.01,2013-09-24 12:32:00,
2013-09-24 06:34:00,39.9,21.3,29.88,SSW,195,3.1,3.1,47,0.00,,---,0.00,VWS V14.01,2013-09-24 12:34:00,
2013-09-24 06:35:00,39.7,21.2,29.88,SSW,194,3.6,3.6,47,0.00,,---,0.00,VWS V14.01,2013-09-24 12:35:00,
2013-09-24 06:37:00,39.6,21.0,29.88,SSW,197,2.7,3.6,47,0.00,,---,0.00,VWS V14.01,2013-09-24 12:37:00,
2013-09-24 06:39:00,39.4,21.3,29.88,SSW,198,3.6,3.6,48,0.00,,---,0.00,VWS V14.01,2013-09-24 12:39:00,
2013-09-24 06:40:00,39.4,21.3,29.88,SSW,198,3.6,3.6,48,0.00,,---,0.00,VWS V14.01,2013-09-24 12:40:00,
2013-09-24 06:42:00,39.4,21.3,29.88,SSW,197,4.0,4.0,48,0.00,,---,0.00,VWS V14.01,2013-09-24 12:42:00,
2013-09-24 06:44:00,39.6,21.5,29.85,SSW,199,3.1,4.0,48,0.00,,---,0.00,VWS V14.01,2013-09-24 12:44:00,
2013-09-24 06:45:00,39.6,21.5,29.85,SSW,199,2.7,4.0,48,0.00,,---,0.00,VWS V14.01,2013-09-24 12:45:00,
2013-09-24 06:48:00,39.7,21.7,29.85,SSW,199,3.6,3.6,48,0.00,,---,0.00,VWS V14.01,2013-09-24 12:48:00,
2013-09-24 06:50:00,39.7,21.7,29.85,SSW,192,4.0,4.0,48,0.00,,---,0.00,VWS V14.01,2013-09-24 12:50:00,
2013-09-24 06:53:00,40.3,21.7,29.85,SSW,203,5.4,5.4,47,0.00,,---,0.00,VWS V14.01,2013-09-24 12:53:00,
2013-09-24 06:55:00,40.6,21.5,29.85,SSW,196,3.6,3.6,46,0.00,,---,0.00,VWS V14.01,2013-09-24 12:55:00,
2013-09-24 06:56:00,40.6,21.5,29.85,SSW,196,2.7,4.0,46,0.00,,---,0.00,VWS V14.01,2013-09-24 12:56:00,
2013-09-24 06:58:00,41.0,21.3,29.85,SSW,195,0.0,2.2,45,0.00,,---,0.00,VWS V14.01,2013-09-24 12:58:00,
2013-09-24 07:00:00,40.8,21.1,29.85,SSW,196,2.2,2.2,45,0.00,,---,0.00,VWS V14.01,2013-09-24 13:00:00,
2013-09-24 07:01:00,40.8,21.1,29.85,SSW,196,0.0,2.2,45,0.00,,---,0.00,VWS V14.01,2013-09-24 13:01:00,
2013-09-24 07:03:00,40.6,21.0,29.85,SSW,196,0.0,0.0,45,0.00,,---,0.00,VWS V14.01,2013-09-24 13:03:00,
2013-09-24 07:05:00,40.5,20.8,29.85,SSW,196,0.0,0.0,45,0.00,,---,0.00,VWS V14.01,2013-09-24 13:05:00,
2013-09-24 07:06:00,40.5,20.8,29.85,SSW,196,0.0,0.0,45,0.00,,---,0.00,VWS V14.01,2013-09-24 13:06:00,
2013-09-24 07:08:00,40.5,21.3,29.85,SSW,196,0.0,0.0,46,0.00,,---,0.00,VWS V14.01,2013-09-24 13:08:00,
2013-09-24 07:10:00,40.5,21.3,29.85,SSW,196,0.0,0.0,46,0.00,,---,0.00,VWS V14.01,2013-09-24 13:10:00,
2013-09-24 07:11:00,40.3,21.2,29.85,SSW,196,0.0,0.0,46,0.00,,---,0.00,VWS V14.01,2013-09-24 13:11:00,
2013-09-24 07:13:00,40.1,21.0,29.85,SSW,195,0.0,0.0,46,0.00,,---,0.00,VWS V14.01,2013-09-24 13:13:00,
2013-09-24 07:15:00,39.9,20.8,29.85,SSW,195,0.0,2.7,46,0.00,,---,0.00,VWS V14.01,2013-09-24 13:15:00,
2013-09-24 07:16:00,39.7,21.2,29.85,SSW,195,2.2,2.2,47,0.00,,---,0.00,VWS V14.01,2013-09-24 13:16:00,
2013-09-24 07:17:00,39.7,21.2,29.85,SSW,195,2.7,2.7,47,0.00,,---,0.00,VWS V14.01,2013-09-24 13:17:00,
2013-09-24 07:19:00,39.6,21.5,29.85,SSW,195,3.1,3.1,48,0.00,,---,0.00,VWS V14.01,2013-09-24 13:19:00,
2013-09-24 07:20:00,39.4,21.3,29.85,SSW,195,2.2,2.7,48,0.00,,---,0.00,VWS V14.01,2013-09-24 13:20:00,
2013-09-24 07:21:00,39.4,21.3,29.85,SSW,195,2.2,2.2,48,0.00,,---,0.00,VWS V14.01,2013-09-24 13:21:00,
2013-09-24 07:22:00,39.2,21.2,29.85,SSW,195,2.2,2.2,48,0.00,,---,0.00,VWS V14.01,2013-09-24 13:22:00,
2013-09-24 07:24:00,39.2,21.7,29.85,SSW,195,3.6,4.0,49,0.00,,---,0.00,VWS V14.01,2013-09-24 13:24:00,
2013-09-24 07:25:00,39.2,21.7,29.85,SSW,195,3.6,3.6,49,0.00,,---,0.00,VWS V14.01,2013-09-24 13:25:00,
2013-09-24 07:26:00,39.4,21.8,29.85,SSW,195,2.7,3.6,49,0.00,,---,0.00,VWS V14.01,2013-09-24 13:26:00,
2013-09-24 07:27:00,39.4,21.8,29.85,SSW,195,2.7,3.1,49,0.00,,---,0.00,VWS V14.01,2013-09-24 13:27:00,
2013-09-24 07:29:00,39.4,21.8,29.85,SSW,195,2.7,3.1,49,0.00,,---,0.00,VWS V14.01,2013-09-24 13:29:00,
2013-09-24 07:30:00,39.7,22.2,29.85,SSW,195,3.1,3.1,49,0.00,,---,0.00,VWS V14.01,2013-09-24 13:30:00,
2013-09-24 07:31:00,39.7,22.2,29.85,SSW,195,3.1,3.1,49,0.00,,---,0.00,VWS V14.01,2013-09-24 13:31:00,
2013-09-24 07:32:00,39.7,22.2,29.85,SSW,195,3.1,3.6,49,0.00,,---,0.00,VWS V14.01,2013-09-24 13:32:00,
2013-09-24 07:34:00,39.7,22.2,29.85,SSW,196,3.1,3.1,49,0.00,,---,0.00,VWS V14.01,2013-09-24 13:34:00,
2013-09-24 07:36:00,39.9,22.3,29.85,SSW,197,3.1,4.9,49,0.00,,---,0.00,VWS V14.01,2013-09-24 13:36:00,
2013-09-24 07:37:00,39.9,22.3,29.85,SSW,196,2.7,3.1,49,0.00,,---,0.00,VWS V14.01,2013-09-24 13:37:00,
2013-09-24 07:39:00,39.9,21.8,29.85,SSW,201,4.0,4.0,48,0.00,,---,0.00,VWS V14.01,2013-09-24 13:39:00,
2013-09-24 07:41:00,40.1,22.0,29.85,SSW,197,4.0,4.0,48,0.00,,---,0.00,VWS V14.01,2013-09-24 13:41:00,
2013-09-24 07:42:00,40.1,22.0,29.85,SSW,194,3.6,5.4,48,0.00,,---,0.00,VWS V14.01,2013-09-24 13:42:00,
2013-09-24 07:44:00,40.3,22.2,29.85,SSW,200,4.0,4.9,48,0.00,,---,0.00,VWS V14.01,2013-09-24 13:44:00,
2013-09-24 07:46:00,40.5,22.3,29.85,SSW,199,5.8,6.3,48,0.00,,---,0.00,VWS V14.01,2013-09-24 13:46:00,
2013-09-24 07:47:00,40.6,22.5,29.85,SSW,198,5.8,5.8,48,0.00,,---,0.00,VWS V14.01,2013-09-24 13:47:00,
2013-09-24 07:49:00,40.8,22.2,29.85,SSW,197,3.6,4.9,47,0.00,,---,0.00,VWS V14.01,2013-09-24 13:49:00,
2013-09-24 07:51:00,41.2,22.0,29.85,SSW,194,3.1,3.1,46,0.00,,---,0.00,VWS V14.01,2013-09-24 13:51:00,
2013-09-24 07:52:00,41.2,22.0,29.85,SSW,194,2.7,3.1,46,0.00,,---,0.00,VWS V14.01,2013-09-24 13:52:00,
2013-09-24 07:53:00,41.2,22.0,29.85,SSW,194,2.7,2.7,46,0.00,,---,0.00,VWS V14.01,2013-09-24 13:53:00,
2013-09-24 07:54:00,41.4,22.1,29.85,SSW,194,2.7,2.7,46,0.00,,---,0.00,VWS V14.01,2013-09-24 13:54:00,
2013-09-24 07:56:00,41.5,21.8,29.85,SSW,194,2.7,3.1,45,0.00,,---,0.00,VWS V14.01,2013-09-24 13:56:00,
2013-09-24 07:57:00,41.5,21.8,29.85,SSW,194,2.7,2.7,45,0.00,,---,0.00,VWS V14.01,2013-09-24 13:57:00,
2013-09-24 07:59:00,41.5,21.8,29.82,SSW,194,3.1,3.1,45,0.00,,---,0.00,VWS V14.01,2013-09-24 13:59:00,
2013-09-24 08:01:00,41.7,22.0,29.82,SSW,194,3.1,3.1,45,0.00,,---,0.00,VWS V14.01,2013-09-24 14:01:00,
2013-09-24 08:02:00,41.7,22.0,29.82,SSW,194,2.7,3.1,45,0.00,,---,0.00,VWS V14.01,2013-09-24 14:02:00,
2013-09-24 08:04:00,41.9,21.6,29.82,SSW,201,4.0,4.9,44,0.00,,---,0.00,VWS V14.01,2013-09-24 14:04:00,
2013-09-24 08:06:00,42.1,21.8,29.82,SSW,198,4.0,4.0,44,0.00,,---,0.00,VWS V14.01,2013-09-24 14:06:00,
2013-09-24 08:07:00,42.3,21.9,29.82,SSW,198,3.6,4.0,44,0.00,,---,0.00,VWS V14.01,2013-09-24 14:07:00,
2013-09-24 08:08:00,42.3,21.9,29.82,SSW,207,4.0,4.0,44,0.00,,---,0.00,VWS V14.01,2013-09-24 14:08:00,
2013-09-24 08:09:00,42.4,22.1,29.82,SSW,206,3.1,4.0,44,0.00,,---,0.00,VWS V14.01,2013-09-24 14:09:00,
2013-09-24 08:11:00,42.6,23.8,29.82,SSW,203,3.1,3.1,47,0.00,,---,0.00,VWS V14.01,2013-09-24 14:11:00,
2013-09-24 08:12:00,42.8,23.5,29.82,SSW,203,2.2,3.1,46,0.00,,---,0.00,VWS V14.01,2013-09-24 14:12:00,
2013-09-24 08:13:00,42.8,24.0,29.82,SSW,203,2.2,2.2,47,0.00,,---,0.00,VWS V14.01,2013-09-24 14:13:00,
2013-09-24 08:14:00,42.8,23.5,29.82,SSW,203,2.2,2.2,46,0.00,,---,0.00,VWS V14.01,2013-09-24 14:14:00,
2013-09-24 08:16:00,42.8,23.5,29.82,SSW,203,0.0,0.0,46,0.00,,---,0.00,VWS V14.01,2013-09-24 14:16:00,
2013-09-24 08:17:00,42.8,23.0,29.82,SSW,204,2.2,2.2,45,0.00,,---,0.00,VWS V14.01,2013-09-24 14:17:00,
2013-09-24 08:19:00,43.0,23.1,29.82,SSW,203,0.0,0.0,45,0.00,,---,0.00,VWS V14.01,2013-09-24 14:19:00,
2013-09-24 08:20:00,43.0,23.1,29.82,SSW,203,0.0,0.0,45,0.00,,---,0.00,VWS V14.01,2013-09-24 14:20:00,
2013-09-24 08:21:00,43.2,22.7,29.82,SSW,203,0.0,0.0,44,0.00,,---,0.00,VWS V14.01,2013-09-24 14:21:00,
2013-09-24 08:22:00,43.3,22.9,29.82,SSW,203,0.0,0.0,44,0.00,,---,0.00,VWS V14.01,2013-09-24 14:22:00,
2013-09-24 08:24:00,43.5,23.1,29.82,SSW,203,0.0,0.0,44,0.00,,---,0.00,VWS V14.01,2013-09-24 14:24:00,
2013-09-24 08:25:00,43.7,23.2,29.82,SSW,203,0.0,0.0,44,0.00,,---,0.00,VWS V14.01,2013-09-24 14:25:00,
2013-09-24 08:26:00,43.7,23.8,29.82,SSW,203,0.0,2.2,45,0.00,,---,0.00,VWS V14.01,2013-09-24 14:26:00,
2013-09-24 08:27:00,43.9,23.9,29.82,SSW,203,0.0,0.0,45,0.00,,---,0.00,VWS V14.01,2013-09-24 14:27:00,
2013-09-24 08:29:00,44.1,24.1,29.82,SSW,203,0.0,0.0,45,0.00,,---,0.00,VWS V14.01,2013-09-24 14:29:00,
2013-09-24 08:30:00,44.1,24.1,29.82,SSW,203,0.0,0.0,45,0.00,,---,0.00,VWS V14.01,2013-09-24 14:30:00,
2013-09-24 08:31:00,44.1,24.1,29.82,SSW,203,0.0,0.0,45,0.00,,---,0.00,VWS V14.01,2013-09-24 14:31:00,
2013-09-24 08:32:00,44.1,24.1,29.82,SSW,203,0.0,0.0,45,0.00,,---,0.00,VWS V14.01,2013-09-24 14:32:00,
2013-09-24 08:34:00,44.2,23.7,29.82,SSW,203,0.0,0.0,44,0.00,,---,0.00,VWS V14.01,2013-09-24 14:34:00,
2013-09-24 08:36:00,44.2,23.7,29.82,SSW,203,0.0,0.0,44,0.00,,---,0.00,VWS V14.01,2013-09-24 14:36:00,
2013-09-24 08:37:00,44.2,23.7,29.82,SSW,203,0.0,0.0,44,0.00,,---,0.00,VWS V14.01,2013-09-24 14:37:00,
2013-09-24 08:39:00,44.4,23.9,29.82,SSW,203,0.0,0.0,44,0.00,,---,0.00,VWS V14.01,2013-09-24 14:39:00,
2013-09-24 08:41:00,44.6,23.5,29.82,SSW,203,0.0,0.0,43,0.00,,---,0.00,VWS V14.01,2013-09-24 14:41:00,
2013-09-24 08:42:00,44.6,23.5,29.82,SSW,203,0.0,0.0,43,0.00,,---,0.00,VWS V14.01,2013-09-24 14:42:00,
2013-09-24 08:43:00,44.6,23.5,29.82,SSW,203,2.2,2.2,43,0.00,,---,0.00,VWS V14.01,2013-09-24 14:43:00,
2013-09-24 08:44:00,44.8,23.7,29.82,SSW,203,0.0,2.2,43,0.00,,---,0.00,VWS V14.01,2013-09-24 14:44:00,
2013-09-24 08:47:00,44.8,23.7,29.82,SSW,203,0.0,0.0,43,0.00,,---,0.00,VWS V14.01,2013-09-24 14:47:00,
2013-09-24 08:48:00,44.8,23.7,29.82,SSW,203,0.0,2.2,43,0.00,,---,0.00,VWS V14.01,2013-09-24 14:48:00,
2013-09-24 08:49:00,45.0,23.8,29.82,SSW,203,0.0,2.2,43,0.00,,---,0.00,VWS V14.01,2013-09-24 14:49:00,
2013-09-24 08:52:00,45.0,23.8,29.82,SSW,203,0.0,0.0,43,0.00,,---,0.00,VWS V14.01,2013-09-24 14:52:00,
2013-09-24 08:53:00,45.0,23.8,29.82,SSW,203,0.0,0.0,43,0.00,,---,0.00,VWS V14.01,2013-09-24 14:53:00,
2013-09-24 08:54:00,45.0,23.8,29.82,SSW,203,0.0,0.0,43,0.00,,---,0.00,VWS V14.01,2013-09-24 14:54:00,
2013-09-24 08:57:00,45.1,24.0,29.82,SSW,203,2.2,2.2,43,0.00,,---,0.00,VWS V14.01,2013-09-24 14:57:00,
2013-09-24 08:58:00,45.1,24.5,29.82,SSW,203,2.2,2.2,44,0.00,,---,0.00,VWS V14.01,2013-09-24 14:58:00,
2013-09-24 08:59:00,45.1,24.5,29.82,SSW,203,0.0,2.2,44,0.00,,---,0.00,VWS V14.01,2013-09-24 14:59:00,
2013-09-24 09:00:00,45.1,24.5,29.82,SSW,203,0.0,2.2,44,0.00,,---,0.00,VWS V14.01,2013-09-24 15:00:00,
2013-09-24 09:02:00,45.1,24.5,29.82,SSW,203,0.0,0.0,44,0.00,,---,0.00,VWS V14.01,2013-09-24 15:02:00,
2013-09-24 09:03:00,45.0,24.4,29.82,SSW,203,0.0,0.0,44,0.00,,---,0.00,VWS V14.01,2013-09-24 15:03:00,
2013-09-24 09:05:00,45.0,24.4,29.82,SSW,203,0.0,0.0,44,0.00,,---,0.00,VWS V14.01,2013-09-24 15:05:00,
2013-09-24 09:06:00,45.0,24.4,29.82,SSW,203,0.0,0.0,44,0.00,,---,0.00,VWS V14.01,2013-09-24 15:06:00,
2013-09-24 09:08:00,45.0,24.9,29.82,SSW,203,0.0,0.0,45,0.00,,---,0.00,VWS V14.01,2013-09-24 15:08:00,
2013-09-24 09:10:00,44.8,25.3,29.82,SSW,203,0.0,0.0,46,0.00,,---,0.00,VWS V14.01,2013-09-24 15:10:00,
2013-09-24 09:11:00,44.8,24.8,29.82,SSW,203,0.0,0.0,45,0.00,,---,0.00,VWS V14.01,2013-09-24 15:11:00,
2013-09-24 09:13:00,45.0,24.9,29.82,SSW,203,0.0,0.0,45,0.00,,---,0.00,VWS V14.01,2013-09-24 15:13:00,
2013-09-24 09:15:00,45.1,25.1,29.82,SSW,203,0.0,0.0,45,0.00,,---,0.00,VWS V14.01,2013-09-24 15:15:00,
2013-09-24 09:16:00,45.1,25.1,29.82,SSW,203,0.0,0.0,45,0.00,,---,0.00,VWS V14.01,2013-09-24 15:16:00,
2013-09-24 09:18:00,45.1,25.1,29.82,SSW,203,0.0,0.0,45,0.00,,---,0.00,VWS V14.01,2013-09-24 15:18:00,
2013-09-24 09:20:00,45.3,25.2,29.82,SSW,203,0.0,0.0,45,0.00,,---,0.00,VWS V14.01,2013-09-24 15:20:00,
2013-09-24 09:22:00,45.5,25.4,29.82,SSW,203,0.0,0.0,45,0.00,,---,0.00,VWS V14.01,2013-09-24 15:22:00,
2013-09-24 09:23:00,45.5,25.4,29.82,SSW,203,0.0,0.0,45,0.00,,---,0.00,VWS V14.01,2013-09-24 15:23:00,
2013-09-24 09:25:00,45.9,25.2,29.82,SSW,203,0.0,0.0,44,0.00,,---,0.00,VWS V14.01,2013-09-24 15:25:00,
2013-09-24 09:27:00,46.0,25.4,29.82,SSW,203,0.0,0.0,44,0.00,,---,0.00,VWS V14.01,2013-09-24 15:27:00,
2013-09-24 09:28:00,46.0,25.4,29.82,SSW,203,0.0,0.0,44,0.00,,---,0.00,VWS V14.01,2013-09-24 15:28:00,
2013-09-24 09:30:00,46.2,25.0,29.82,SSW,203,0.0,0.0,43,0.00,,---,0.00,VWS V14.01,2013-09-24 15:30:00,
2013-09-24 09:33:00,46.4,25.1,29.82,SSW,203,0.0,0.0,43,0.00,,---,0.00,VWS V14.01,2013-09-24 15:33:00,
2013-09-24 09:35:00,46.4,25.1,29.82,SSW,203,0.0,0.0,43,0.00,,---,0.00,VWS V14.01,2013-09-24 15:35:00,
2013-09-24 09:38:00,46.4,25.1,29.82,SSW,203,0.0,0.0,43,0.00,,---,0.00,VWS V14.01,2013-09-24 15:38:00,
2013-09-24 09:40:00,46.4,24.6,29.82,SSW,203,0.0,0.0,42,0.00,,---,0.00,VWS V14.01,2013-09-24 15:40:00,
2013-09-24 09:43:00,46.2,24.4,29.82,SSW,203,0.0,0.0,42,0.00,,---,0.00,VWS V14.01,2013-09-24 15:43:00,
2013-09-24 09:44:00,46.2,24.4,29.82,SSW,203,0.0,0.0,42,0.00,,---,0.00,VWS V14.01,2013-09-24 15:44:00,
2013-09-24 09:45:00,46.2,24.4,29.82,SSW,203,0.0,0.0,42,0.00,,---,0.00,VWS V14.01,2013-09-24 15:45:00,
2013-09-24 09:48:00,46.4,24.6,29.82,SSW,203,0.0,0.0,42,0.00,,---,0.00,VWS V14.01,2013-09-24 15:48:00,
2013-09-24 09:49:00,46.4,24.6,29.82,SSW,203,0.0,0.0,42,0.00,,---,0.00,VWS V14.01,2013-09-24 15:49:00,
2013-09-24 09:50:00,46.6,24.7,29.82,SSW,203,0.0,0.0,42,0.00,,---,0.00,VWS V14.01,2013-09-24 15:50:00,
2013-09-24 09:51:00,46.6,24.7,29.82,SSW,203,0.0,0.0,42,0.00,,---,0.00,VWS V14.01,2013-09-24 15:51:00,
2013-09-24 09:53:00,46.8,24.3,29.82,SSW,203,0.0,0.0,41,0.00,,---,0.00,VWS V14.01,2013-09-24 15:53:00,
2013-09-24 09:54:00,46.8,24.3,29.82,SSW,203,0.0,0.0,41,0.00,,---,0.00,VWS V14.01,2013-09-24 15:54:00,
2013-09-24 09:56:00,46.9,24.5,29.82,SSW,203,0.0,0.0,41,0.00,,---,0.00,VWS V14.01,2013-09-24 15:56:00,
2013-09-24 09:58:00,46.9,24.5,29.82,SSW,203,0.0,0.0,41,0.00,,---,0.00,VWS V14.01,2013-09-24 15:58:00,
2013-09-24 09:59:00,46.9,24.5,29.82,SSW,203,0.0,0.0,41,0.00,,---,0.00,VWS V14.01,2013-09-24 15:59:00,
2013-09-24 10:01:00,46.9,24.5,29.82,SSW,203,0.0,0.0,41,0.00,,---,0.00,VWS V14.01,2013-09-24 16:01:00,
2013-09-24 10:04:00,47.1,24.6,29.82,SSW,203,0.0,0.0,41,0.00,,---,0.00,VWS V14.01,2013-09-24 16:04:00,
2013-09-24 10:06:00,47.1,24.6,29.82,SSW,203,0.0,0.0,41,0.00,,---,0.00,VWS V14.01,2013-09-24 16:06:00,
2013-09-24 10:07:00,47.3,24.8,29.82,SSW,203,0.0,0.0,41,0.00,,---,0.00,VWS V14.01,2013-09-24 16:07:00,
2013-09-24 10:09:00,47.3,24.8,29.82,SSW,203,0.0,0.0,41,0.00,,---,0.00,VWS V14.01,2013-09-24 16:09:00,
2013-09-24 10:11:00,47.3,24.8,29.82,SSW,203,0.0,0.0,41,0.00,,---,0.00,VWS V14.01,2013-09-24 16:11:00,
2013-09-24 10:12:00,47.3,24.8,29.82,SSW,203,0.0,0.0,41,0.00,,---,0.00,VWS V14.01,2013-09-24 16:12:00,
2013-09-24 10:14:00,47.3,24.2,29.82,SSW,203,0.0,0.0,40,0.00,,---,0.00,VWS V14.01,2013-09-24 16:14:00,
2013-09-24 10:16:00,47.3,24.2,29.79,SSW,203,0.0,0.0,40,0.00,,---,0.00,VWS V14.01,2013-09-24 16:16:00,
2013-09-24 10:17:00,47.3,24.2,29.79,SSW,203,0.0,0.0,40,0.00,,---,0.00,VWS V14.01,2013-09-24 16:17:00,
2013-09-24 10:19:00,47.3,24.8,29.79,SSW,203,0.0,0.0,41,0.00,,---,0.00,VWS V14.01,2013-09-24 16:19:00,
2013-09-24 10:21:00,47.5,25.0,29.79,SSW,203,0.0,0.0,41,0.00,,---,0.00,VWS V14.01,2013-09-24 16:21:00,
2013-09-24 10:22:00,47.5,25.0,29.79,SSW,203,0.0,0.0,41,0.00,,---,0.00,VWS V14.01,2013-09-24 16:22:00,
2013-09-24 10:24:00,47.7,24.5,29.79,SSW,203,0.0,0.0,40,0.00,,---,0.00,VWS V14.01,2013-09-24 16:24:00,
2013-09-24 10:25:00,47.7,24.5,29.79,SSW,203,0.0,0.0,40,0.00,,---,0.00,VWS V14.01,2013-09-24 16:25:00,
2013-09-24 10:26:00,47.8,25.3,29.79,South,172,2.7,3.1,41,0.00,,---,0.00,VWS V14.01,2013-09-24 16:26:00,
2013-09-24 10:27:00,48.0,25.5,29.79,South,171,2.7,3.1,41,0.00,,---,0.00,VWS V14.01,2013-09-24 16:27:00,
2013-09-24 10:29:00,48.2,25.6,29.79,South,171,0.0,0.0,41,0.00,,---,0.00,VWS V14.01,2013-09-24 16:29:00,
2013-09-24 10:30:00,48.2,25.6,29.79,South,171,0.0,0.0,41,0.00,,---,0.00,VWS V14.01,2013-09-24 16:30:00,
2013-09-24 10:31:00,48.4,25.8,29.79,South,171,0.0,0.0,41,0.00,,---,0.00,VWS V14.01,2013-09-24 16:31:00,
2013-09-24 10:32:00,48.4,25.8,29.79,South,171,0.0,0.0,41,0.00,,---,0.00,VWS V14.01,2013-09-24 16:32:00,
2013-09-24 10:34:00,48.6,25.4,29.79,South,171,0.0,0.0,40,0.00,,---,0.00,VWS V14.01,2013-09-24 16:34:00,
2013-09-24 10:35:00,48.6,25.4,29.79,South,171,0.0,0.0,40,0.00,,---,0.00,VWS V14.01,2013-09-24 16:35:00,
2013-09-24 10:36:00,48.4,25.2,29.79,South,171,0.0,0.0,40,0.00,,---,0.00,VWS V14.01,2013-09-24 16:36:00,
2013-09-24 10:37:00,48.4,25.2,29.79,South,171,0.0,0.0,40,0.00,,---,0.00,VWS V14.01,2013-09-24 16:37:00,
2013-09-24 10:39:00,48.4,25.2,29.79,South,171,0.0,0.0,40,0.00,,---,0.00,VWS V14.01,2013-09-24 16:39:00,
2013-09-24 10:40:00,48.4,25.2,29.79,South,171,0.0,0.0,40,0.00,,---,0.00,VWS V14.01,2013-09-24 16:40:00,
2013-09-24 10:41:00,48.4,25.2,29.79,South,171,0.0,0.0,40,0.00,,---,0.00,VWS V14.01,2013-09-24 16:41:00,
2013-09-24 10:43:00,48.4,25.2,29.79,SSE,165,3.1,3.6,40,0.00,,---,0.00,VWS V14.01,2013-09-24 16:43:00,
2013-09-24 10:45:00,48.4,25.2,29.79,SSE,147,2.2,2.7,40,0.00,,---,0.00,VWS V14.01,2013-09-24 16:45:00,
2013-09-24 10:47:00,48.6,25.4,29.79,SE,135,0.0,0.0,40,0.00,,---,0.00,VWS V14.01,2013-09-24 16:47:00,
2013-09-24 10:49:00,48.6,26.0,29.79,SSE,156,0.0,0.0,41,0.00,,---,0.00,VWS V14.01,2013-09-24 16:49:00,
2013-09-24 10:50:00,48.7,25.5,29.79,SE,130,2.7,2.7,40,0.00,,---,0.00,VWS V14.01,2013-09-24 16:50:00,
2013-09-24 10:51:00,48.7,25.5,29.79,North,357,3.6,4.0,40,0.00,,---,0.00,VWS V14.01,2013-09-24 16:51:00,
2013-09-24 10:52:00,48.7,25.5,29.79,North,357,3.6,3.6,40,0.00,,---,0.00,VWS V14.01,2013-09-24 16:52:00,
2013-09-24 10:54:00,48.7,25.5,29.79,North,357,2.2,2.2,40,0.00,,---,0.00,VWS V14.01,2013-09-24 16:54:00,
2013-09-24 10:55:00,48.7,25.5,29.79,North,5,3.1,3.1,40,0.00,,---,0.00,VWS V14.01,2013-09-24 16:55:00,
2013-09-24 10:56:00,48.7,25.5,29.79,North,9,3.6,3.6,40,0.00,,---,0.00,VWS V14.01,2013-09-24 16:56:00,
2013-09-24 10:57:00,48.7,25.5,29.79,North,2,2.7,3.6,40,0.00,,---,0.00,VWS V14.01,2013-09-24 16:57:00,
2013-09-24 10:59:00,48.9,25.7,29.79,NNE,16,2.7,3.6,40,0.00,,---,0.00,VWS V14.01,2013-09-24 16:59:00,
2013-09-24 11:00:00,48.9,25.7,29.79,NNE,20,2.7,3.1,40,0.00,,---,0.00,VWS V14.01,2013-09-24 17:00:00,
2013-09-24 11:02:00,49.1,25.8,29.79,NNE,20,0.0,0.0,40,0.00,,---,0.00,VWS V14.01,2013-09-24 17:02:00,
2013-09-24 11:04:00,49.5,26.2,29.79,East,90,2.2,2.7,40,0.00,,---,0.00,VWS V14.01,2013-09-24 17:04:00,
2013-09-24 11:05:00,49.6,26.3,29.79,NE,43,3.6,3.6,40,0.00,,---,0.00,VWS V14.01,2013-09-24 17:05:00,
2013-09-24 11:07:00,49.8,26.5,29.79,East,92,2.7,2.7,40,0.00,,---,0.00,VWS V14.01,2013-09-24 17:07:00,
2013-09-24 11:09:00,50.0,26.0,29.79,ESE,103,3.1,3.1,39,0.00,,---,0.00,VWS V14.01,2013-09-24 17:09:00,
2013-09-24 11:10:00,50.0,26.0,29.79,ESE,112,3.1,4.0,39,0.00,,---,0.00,VWS V14.01,2013-09-24 17:10:00,
2013-09-24 11:11:00,50.0,26.0,29.79,SE,138,2.7,3.1,39,0.00,,---,0.00,VWS V14.01,2013-09-24 17:11:00,
2013-09-24 11:12:00,50.2,26.2,29.79,SE,146,2.7,3.1,39,0.00,,---,0.00,VWS V14.01,2013-09-24 17:12:00,
2013-09-24 11:14:00,50.2,25.6,29.79,North,357,2.7,3.6,38,0.00,,---,0.00,VWS V14.01,2013-09-24 17:14:00,
2013-09-24 11:15:00,50.2,25.6,29.79,North,0,3.1,3.6,38,0.00,,---,0.00,VWS V14.01,2013-09-24 17:15:00,
2013-09-24 11:16:00,50.2,25.6,29.79,NNE,16,2.2,2.7,38,0.00,,---,0.00,VWS V14.01,2013-09-24 17:16:00,
2013-09-24 11:17:00,50.2,25.6,29.79,East,81,2.2,2.2,38,0.00,,---,0.00,VWS V14.01,2013-09-24 17:17:00,
2013-09-24 11:20:00,50.5,25.9,29.79,SE,138,2.7,2.7,38,0.00,,---,0.00,VWS V14.01,2013-09-24 17:20:00,
2013-09-24 11:21:00,50.7,26.0,29.79,SE,138,0.0,0.0,38,0.00,,---,0.00,VWS V14.01,2013-09-24 17:21:00,
2013-09-24 11:22:00,50.7,26.0,29.79,SE,138,0.0,0.0,38,0.00,,---,0.00,VWS V14.01,2013-09-24 17:22:00,
2013-09-24 11:23:00,51.1,26.4,29.79,South,184,2.2,2.2,38,0.00,,---,0.00,VWS V14.01,2013-09-24 17:23:00,
2013-09-24 11:25:00,51.4,26.7,29.79,WSW,253,0.0,0.0,38,0.00,,---,0.00,VWS V14.01,2013-09-24 17:25:00,
2013-09-24 11:26:00,51.6,26.9,29.79,NW,310,2.7,2.7,38,0.00,,---,0.00,VWS V14.01,2013-09-24 17:26:00,
2013-09-24 11:27:00,51.6,26.9,29.79,NW,310,0.0,2.2,38,0.00,,---,0.00,VWS V14.01,2013-09-24 17:27:00,
2013-09-24 11:28:00,51.8,26.4,29.79,NNW,343,3.1,3.1,37,0.00,,---,0.00,VWS V14.01,2013-09-24 17:28:00,
2013-09-24 11:30:00,51.8,26.4,29.76,North,2,3.1,4.0,37,0.00,,---,0.00,VWS V14.01,2013-09-24 17:30:00,
2013-09-24 11:31:00,51.8,26.4,29.76,North,3,2.7,3.6,37,0.00,,---,0.00,VWS V14.01,2013-09-24 17:31:00,
2013-09-24 11:32:00,51.8,26.4,29.76,North,10,2.7,3.1,37,0.00,,---,0.00,VWS V14.01,2013-09-24 17:32:00,
2013-09-24 11:33:00,51.8,26.4,29.76,North,10,2.7,2.7,37,0.00,,---,0.00,VWS V14.01,2013-09-24 17:33:00,
2013-09-24 11:35:00,51.8,26.4,29.76,NE,35,3.1,3.6,37,0.00,,---,0.00,VWS V14.01,2013-09-24 17:35:00,
2013-09-24 11:36:00,51.8,26.4,29.76,NE,37,3.6,3.6,37,0.00,,---,0.00,VWS V14.01,2013-09-24 17:36:00,
2013-09-24 11:37:00,51.8,26.4,29.76,NNE,31,3.1,3.1,37,0.00,,---,0.00,VWS V14.01,2013-09-24 17:37:00,
2013-09-24 11:38:00,51.8,26.4,29.76,NNE,17,3.1,3.1,37,0.00,,---,0.00,VWS V14.01,2013-09-24 17:38:00,
2013-09-24 11:40:00,51.8,26.4,29.76,NNE,15,3.6,3.6,37,0.00,,---,0.00,VWS V14.01,2013-09-24 17:40:00,
2013-09-24 11:41:00,51.8,26.4,29.76,North,357,5.4,5.4,37,0.00,,---,0.00,VWS V14.01,2013-09-24 17:41:00,
2013-09-24 11:42:00,51.6,26.2,29.76,North,353,4.9,5.4,37,0.00,,---,0.00,VWS V14.01,2013-09-24 17:42:00,
2013-09-24 11:43:00,51.6,26.2,29.76,North,7,4.0,4.9,37,0.00,,---,0.00,VWS V14.01,2013-09-24 17:43:00,
2013-09-24 11:45:00,51.3,25.9,29.79,NNE,12,4.0,4.0,37,0.00,,---,0.00,VWS V14.01,2013-09-24 17:45:00,
2013-09-24 11:46:00,51.3,25.9,29.79,North,9,4.0,4.0,37,0.00,,---,0.00,VWS V14.01,2013-09-24 17:46:00,
2013-09-24 11:47:00,51.1,25.7,29.79,NNE,16,3.6,4.0,37,0.00,,---,0.00,VWS V14.01,2013-09-24 17:47:00,
2013-09-24 11:48:00,51.1,25.7,29.79,North,1,3.6,3.6,37,0.00,,---,0.00,VWS V14.01,2013-09-24 17:48:00,
2013-09-24 11:50:00,50.9,25.6,29.79,NNE,28,3.1,4.9,37,0.00,,---,0.00,VWS V14.01,2013-09-24 17:50:00,
2013-09-24 11:51:00,50.7,25.4,29.79,NNE,13,3.6,3.6,37,0.00,,---,0.00,VWS V14.01,2013-09-24 17:51:00,
2013-09-24 11:52:00,50.7,25.4,29.79,NNE,13,3.1,3.6,37,0.00,,---,0.00,VWS V14.01,2013-09-24 17:52:00,
2013-09-24 11:53:00,50.5,25.2,29.79,North,3,4.0,4.0,37,0.00,,---,0.00,VWS V14.01,2013-09-24 17:53:00,
2013-09-24 11:55:00,50.4,25.1,29.79,North,6,3.6,4.0,37,0.00,,---,0.00,VWS V14.01,2013-09-24 17:55:00,
2013-09-24 11:56:00,50.4,25.1,29.79,North,6,0.0,3.6,37,0.00,,---,0.00,VWS V14.01,2013-09-24 17:56:00,
2013-09-24 11:57:00,50.4,25.1,29.79,NE,49,0.0,0.0,37,0.00,,---,0.00,VWS V14.01,2013-09-24 17:57:00,
2013-09-24 11:58:00,50.4,25.1,29.79,NE,55,0.0,0.0,37,0.00,,---,0.00,VWS V14.01,2013-09-24 17:58:00,
2013-09-24 12:01:00,50.5,25.2,29.79,NNE,27,3.6,3.6,37,0.00,,---,0.00,VWS V14.01,2013-09-24 18:01:00,
2013-09-24 12:02:00,50.5,25.2,29.79,NNE,27,0.0,2.2,37,0.00,,---,0.00,VWS V14.01,2013-09-24 18:02:00,
2013-09-24 12:03:00,50.5,25.2,29.79,ESE,103,2.7,3.1,37,0.00,,---,0.00,VWS V14.01,2013-09-24 18:03:00,
2013-09-24 12:04:00,50.5,25.2,29.79,ESE,103,3.6,3.6,37,0.00,,---,0.00,VWS V14.01,2013-09-24 18:04:00,
2013-09-24 12:06:00,50.7,25.4,29.79,ESE,103,0.0,2.7,37,0.00,,---,0.00,VWS V14.01,2013-09-24 18:06:00,
2013-09-24 12:07:00,50.9,25.6,29.79,ESE,103,0.0,0.0,37,0.00,,---,0.00,VWS V14.01,2013-09-24 18:07:00,
2013-09-24 12:09:00,50.9,26.2,29.79,ESE,103,2.7,3.1,38,0.00,,---,0.00,VWS V14.01,2013-09-24 18:09:00,
2013-09-24 12:11:00,51.1,26.4,29.79,ESE,103,0.0,0.0,38,0.00,,---,0.00,VWS V14.01,2013-09-24 18:11:00,
2013-09-24 12:12:00,51.3,26.5,29.79,ESE,103,0.0,0.0,38,0.00,,---,0.00,VWS V14.01,2013-09-24 18:12:00,
2013-09-24 12:14:00,51.4,26.7,29.79,ESE,103,0.0,0.0,38,0.00,,---,0.00,VWS V14.01,2013-09-24 18:14:00,
2013-09-24 12:16:00,51.6,26.9,29.76,ESE,103,2.2,2.2,38,0.00,,---,0.00,VWS V14.01,2013-09-24 18:16:00,
2013-09-24 12:17:00,51.6,26.9,29.76,ESE,102,0.0,2.2,38,0.00,,---,0.00,VWS V14.01,2013-09-24 18:17:00,
2013-09-24 12:19:00,51.8,26.4,29.76,NNE,20,2.2,3.6,37,0.00,,---,0.00,VWS V14.01,2013-09-24 18:19:00,
2013-09-24 12:21:00,52.0,27.2,29.76,NNE,20,0.0,0.0,38,0.00,,---,0.00,VWS V14.01,2013-09-24 18:21:00,
2013-09-24 12:22:00,52.2,27.3,29.76,ENE,71,0.0,0.0,38,0.00,,---,0.00,VWS V14.01,2013-09-24 18:22:00,
2013-09-24 12:24:00,52.2,27.3,29.76,NNE,32,2.7,2.7,38,0.00,,---,0.00,VWS V14.01,2013-09-24 18:24:00,
2013-09-24 12:26:00,52.2,27.3,29.76,NNE,28,3.6,3.6,38,0.00,,---,0.00,VWS V14.01,2013-09-24 18:26:00,
2013-09-24 12:27:00,52.2,27.3,29.76,North,9,3.6,3.6,38,0.00,,---,0.00,VWS V14.01,2013-09-24 18:27:00,
2013-09-24 12:29:00,52.0,27.2,29.76,North,8,3.6,4.0,38,0.00,,---,0.00,VWS V14.01,2013-09-24 18:29:00,
2013-09-24 12:31:00,52.0,27.2,29.76,North,6,3.6,4.0,38,0.00,,---,0.00,VWS V14.01,2013-09-24 18:31:00,
2013-09-24 12:33:00,51.6,26.9,29.76,North,357,3.6,5.4,38,0.00,,---,0.00,VWS V14.01,2013-09-24 18:33:00,
2013-09-24 12:34:00,51.6,26.9,29.76,North,357,3.6,5.4,38,0.00,,---,0.00,VWS V14.01,2013-09-24 18:34:00,
2013-09-24 12:35:00,51.6,27.5,29.76,NNE,14,5.4,5.4,39,0.00,,---,0.00,VWS V14.01,2013-09-24 18:35:00,
2013-09-24 12:36:00,51.4,27.3,29.76,North,6,4.0,4.9,39,0.00,,---,0.00,VWS V14.01,2013-09-24 18:36:00,
2013-09-24 12:37:00,51.4,27.3,29.76,North,6,3.6,4.5,39,0.00,,---,0.00,VWS V14.01,2013-09-24 18:37:00,
2013-09-24 12:38:00,51.4,26.7,29.76,North,0,4.5,4.5,38,0.00,,---,0.00,VWS V14.01,2013-09-24 18:38:00,
2013-09-24 12:40:00,51.4,26.7,29.76,North,5,3.6,3.6,38,0.00,,---,0.00,VWS V14.01,2013-09-24 18:40:00,
2013-09-24 12:41:00,51.4,27.3,29.76,North,2,2.7,3.1,39,0.00,,---,0.00,VWS V14.01,2013-09-24 18:41:00,
2013-09-24 12:42:00,51.4,27.3,29.76,North,4,3.6,3.6,39,0.00,,---,0.00,VWS V14.01,2013-09-24 18:42:00,
2013-09-24 12:43:00,51.4,27.3,29.76,North,0,4.9,4.9,39,0.00,,---,0.00,VWS V14.01,2013-09-24 18:43:00,
2013-09-24 12:45:00,51.4,26.7,29.76,North,4,3.1,4.0,38,0.00,,---,0.00,VWS V14.01,2013-09-24 18:45:00,
2013-09-24 12:46:00,51.3,26.5,29.76,North,4,4.0,4.0,38,0.00,,---,0.00,VWS V14.01,2013-09-24 18:46:00,
2013-09-24 12:47:00,51.3,26.5,29.76,North,9,2.7,4.0,38,0.00,,---,0.00,VWS V14.01,2013-09-24 18:47:00,
2013-09-24 12:48:00,51.3,26.5,29.76,NE,50,0.0,3.1,38,0.00,,---,0.00,VWS V14.01,2013-09-24 18:48:00,
2013-09-24 12:50:00,51.4,26.7,29.76,NE,39,0.0,2.7,38,0.00,,---,0.00,VWS V14.01,2013-09-24 18:50:00,
2013-09-24 12:51:00,51.4,26.7,29.76,North,7,3.6,4.0,38,0.00,,---,0.00,VWS V14.01,2013-09-24 18:51:00,
2013-09-24 12:52:00,51.4,27.3,29.76,NNE,22,3.6,3.6,39,0.00,,---,0.00,VWS V14.01,2013-09-24 18:52:00,
2013-09-24 12:53:00,51.3,26.5,29.76,North,10,3.1,5.4,38,0.00,,---,0.00,VWS V14.01,2013-09-24 18:53:00,
2013-09-24 12:55:00,50.9,26.8,29.76,North,1,3.1,4.9,39,0.00,,---,0.00,VWS V14.01,2013-09-24 18:55:00,
2013-09-24 12:56:00,50.7,26.7,29.76,North,1,3.1,3.6,39,0.00,,---,0.00,VWS V14.01,2013-09-24 18:56:00,
2013-09-24 12:58:00,50.5,27.1,29.76,North,4,3.1,3.1,40,0.00,,---,0.00,VWS V14.01,2013-09-24 18:58:00,
2013-09-24 13:00:00,50.4,27.0,29.76,North,0,2.7,3.1,40,0.00,,---,0.00,VWS V14.01,2013-09-24 19:00:00,
2013-09-24 13:02:00,50.4,27.0,29.76,North,0,3.6,3.6,40,0.00,,---,0.00,VWS V14.01,2013-09-24 19:02:00,
2013-09-24 13:03:00,50.4,27.6,29.76,North,0,2.7,2.7,41,0.00,,---,0.00,VWS V14.01,2013-09-24 19:03:00,
2013-09-24 13:04:00,50.2,26.8,29.76,North,7,3.6,3.6,40,0.00,,---,0.00,VWS V14.01,2013-09-24 19:04:00,
2013-09-24 13:05:00,50.2,26.8,29.76,North,7,2.7,3.6,40,0.00,,---,0.00,VWS V14.01,2013-09-24 19:05:00,
2013-09-24 13:07:00,50.0,26.6,29.76,North,4,3.1,3.6,40,0.00,,---,0.00,VWS V14.01,2013-09-24 19:07:00,
2013-09-24 13:08:00,50.0,26.6,29.76,North,7,3.1,3.6,40,0.00,,---,0.00,VWS V14.01,2013-09-24 19:08:00,
2013-09-24 13:09:00,49.8,27.1,29.76,North,4,2.7,3.6,41,0.00,,---,0.00,VWS V14.01,2013-09-24 19:09:00,
2013-09-24 13:10:00,49.6,26.9,29.76,North,11,3.6,3.6,41,0.00,,---,0.00,VWS V14.01,2013-09-24 19:10:00,
2013-09-24 13:12:00,49.5,26.8,29.76,NNE,12,2.7,3.1,41,0.00,,---,0.00,VWS V14.01,2013-09-24 19:12:00,
2013-09-24 13:13:00,49.5,26.8,29.76,NNE,12,2.7,2.7,41,0.00,,---,0.00,VWS V14.01,2013-09-24 19:13:00,
2013-09-24 13:14:00,49.3,26.6,29.76,NNE,12,2.2,2.7,41,0.00,,---,0.00,VWS V14.01,2013-09-24 19:14:00,
2013-09-24 13:16:00,49.1,26.4,29.76,NNE,12,2.2,2.2,41,0.00,,---,0.00,VWS V14.01,2013-09-24 19:16:00,
2013-09-24 13:17:00,49.1,27.0,29.76,NNE,12,0.0,0.0,42,0.00,,---,0.00,VWS V14.01,2013-09-24 19:17:00,
2013-09-24 13:18:00,48.9,26.9,29.76,NNE,12,2.7,2.7,42,0.00,,---,0.00,VWS V14.01,2013-09-24 19:18:00,
2013-09-24 13:19:00,48.9,26.9,29.76,NNE,12,2.2,2.7,42,0.00,,---,0.00,VWS V14.01,2013-09-24 19:19:00,
2013-09-24 13:21:00,48.9,27.4,29.76,NNE,12,0.0,0.0,43,0.00,,---,0.00,VWS V14.01,2013-09-24 19:21:00,
2013-09-24 13:22:00,48.7,27.8,29.76,NNE,12,2.2,2.2,44,0.00,,---,0.00,VWS V14.01,2013-09-24 19:22:00,
2013-09-24 13:24:00,48.7,28.4,29.76,North,357,3.1,4.0,45,0.00,,---,0.00,VWS V14.01,2013-09-24 19:24:00,
2013-09-24 13:26:00,48.4,29.1,29.76,North,357,2.7,2.7,47,0.00,,---,0.00,VWS V14.01,2013-09-24 19:26:00,
2013-09-24 13:27:00,48.4,29.6,29.76,North,357,2.7,2.7,48,0.00,,---,0.00,VWS V14.01,2013-09-24 19:27:00,
2013-09-24 13:29:00,48.2,30.0,29.76,North,357,2.7,3.6,49,0.00,,---,0.00,VWS V14.01,2013-09-24 19:29:00,
2013-09-24 13:31:00,47.8,29.6,29.76,North,357,3.1,3.6,49,0.00,,---,0.00,VWS V14.01,2013-09-24 19:31:00,
2013-09-24 13:32:00,47.8,30.1,29.76,North,357,2.2,2.7,50,0.00,,---,0.00,VWS V14.01,2013-09-24 19:32:00,
2013-09-24 13:34:00,47.5,30.3,29.76,North,357,0.0,2.7,51,0.00,,---,0.00,VWS V14.01,2013-09-24 19:34:00,
2013-09-24 13:36:00,47.3,30.1,29.76,North,357,2.7,2.7,51,0.00,,---,0.00,VWS V14.01,2013-09-24 19:36:00,
2013-09-24 13:37:00,47.3,30.1,29.76,North,357,2.7,2.7,51,0.00,,---,0.00,VWS V14.01,2013-09-24 19:37:00,
2013-09-24 13:39:00,46.9,30.2,29.76,North,0,2.7,2.7,52,0.00,,---,0.00,VWS V14.01,2013-09-24 19:39:00,
2013-09-24 13:41:00,46.8,30.5,29.76,North,0,2.7,3.1,53,0.00,,---,0.00,VWS V14.01,2013-09-24 19:41:00,
2013-09-24 13:42:00,46.8,30.5,29.76,North,0,2.7,2.7,53,0.00,,---,0.00,VWS V14.01,2013-09-24 19:42:00,
2013-09-24 13:43:00,46.6,30.8,29.76,North,0,2.7,2.7,54,0.00,,---,0.00,VWS V14.01,2013-09-24 19:43:00,
2013-09-24 13:44:00,46.4,31.1,29.76,North,0,0.0,2.7,55,0.00,,---,0.00,VWS V14.01,2013-09-24 19:44:00,
2013-09-24 13:46:00,46.4,31.1,29.76,North,0,0.0,0.0,55,0.00,,---,0.00,VWS V14.01,2013-09-24 19:46:00,
2013-09-24 13:47:00,46.2,31.0,29.76,North,0,0.0,0.0,55,0.00,,---,0.00,VWS V14.01,2013-09-24 19:47:00,
2013-09-24 13:48:00,46.2,31.0,29.76,North,0,0.0,0.0,55,0.00,,---,0.00,VWS V14.01,2013-09-24 19:48:00,
2013-09-24 13:49:00,46.2,31.4,29.76,North,0,0.0,0.0,56,0.00,,---,0.00,VWS V14.01,2013-09-24 19:49:00,
2013-09-24 13:51:00,46.2,31.8,29.76,North,0,0.0,0.0,57,0.00,,---,0.00,VWS V14.01,2013-09-24 19:51:00,
2013-09-24 13:52:00,46.2,31.8,29.76,North,0,0.0,0.0,57,0.00,,---,0.00,VWS V14.01,2013-09-24 19:52:00,
2013-09-24 13:53:00,46.2,32.3,29.76,North,0,0.0,0.0,58,0.00,,---,0.00,VWS V14.01,2013-09-24 19:53:00,
2013-09-24 13:54:00,46.2,32.3,29.76,North,357,2.7,2.7,58,0.00,,---,0.00,VWS V14.01,2013-09-24 19:54:00,
2013-09-24 13:56:00,46.0,32.5,29.76,North,357,0.0,2.2,59,0.00,,---,0.00,VWS V14.01,2013-09-24 19:56:00,
2013-09-24 13:57:00,46.0,32.5,29.76,North,357,0.0,2.2,59,0.00,,---,0.00,VWS V14.01,2013-09-24 19:57:00,
2013-09-24 13:58:00,46.0,32.5,29.76,North,357,0.0,0.0,59,0.00,,---,0.00,VWS V14.01,2013-09-24 19:58:00,
2013-09-24 13:59:00,46.0,32.5,29.76,North,357,0.0,0.0,59,0.00,,---,0.00,VWS V14.01,2013-09-24 19:59:00,
2013-09-24 14:02:00,45.9,32.4,29.76,North,357,0.0,0.0,59,0.00,,---,0.00,VWS V14.01,2013-09-24 20:02:00,
2013-09-24 14:03:00,45.9,32.4,29.76,North,357,0.0,0.0,59,0.00,,---,0.00,VWS V14.01,2013-09-24 20:03:00,
2013-09-24 14:04:00,45.9,32.4,29.76,North,357,0.0,0.0,59,0.00,,---,0.00,VWS V14.01,2013-09-24 20:04:00,
2013-09-24 14:07:00,45.7,32.6,29.76,North,357,0.0,0.0,60,0.00,,---,0.00,VWS V14.01,2013-09-24 20:07:00,
2013-09-24 14:08:00,45.7,32.6,29.76,North,357,0.0,0.0,60,0.00,,---,0.00,VWS V14.01,2013-09-24 20:08:00,
2013-09-24 14:09:00,45.7,33.0,29.76,North,357,0.0,0.0,61,0.00,,---,0.00,VWS V14.01,2013-09-24 20:09:00,
2013-09-24 14:12:00,45.5,32.8,29.76,North,357,0.0,0.0,61,0.00,,---,0.00,VWS V14.01,2013-09-24 20:12:00,
2013-09-24 14:14:00,45.5,33.2,29.76,North,357,0.0,0.0,62,0.00,,---,0.00,VWS V14.01,2013-09-24 20:14:00,
2013-09-24 14:15:00,45.5,33.2,29.76,North,357,0.0,0.0,62,0.00,,---,0.00,VWS V14.01,2013-09-24 20:15:00,
2013-09-24 14:17:00,45.5,33.7,29.76,North,357,0.0,0.0,63,0.00,,---,0.00,VWS V14.01,2013-09-24 20:17:00,
2013-09-24 14:19:00,45.5,34.0,29.76,North,357,0.0,0.0,64,0.00,,---,0.00,VWS V14.01,2013-09-24 20:19:00,
2013-09-24 14:20:00,45.5,34.0,29.76,North,357,0.0,0.0,64,0.04,,---,0.04,VWS V14.01,2013-09-24 20:20:00,
2013-09-24 14:22:00,45.5,34.4,29.76,North,357,0.0,0.0,65,0.04,,---,0.04,VWS V14.01,2013-09-24 20:22:00,
2013-09-24 14:24:00,45.3,34.3,29.76,North,357,0.0,0.0,65,0.04,,---,0.04,VWS V14.01,2013-09-24 20:24:00,
2013-09-24 14:25:00,45.3,34.3,29.76,North,357,0.0,0.0,65,0.04,,---,0.04,VWS V14.01,2013-09-24 20:25:00,
2013-09-24 14:27:00,45.3,34.6,29.76,North,357,0.0,0.0,66,0.04,,---,0.04,VWS V14.01,2013-09-24 20:27:00,
2013-09-24 14:28:00,45.3,34.6,29.76,North,357,0.0,0.0,66,0.04,,---,0.04,VWS V14.01,2013-09-24 20:28:00,
2013-09-24 14:29:00,45.1,34.5,29.73,North,357,0.0,0.0,66,0.04,,---,0.04,VWS V14.01,2013-09-24 20:29:00,
2013-09-24 14:30:00,45.1,34.5,29.73,North,357,0.0,0.0,66,0.04,,---,0.04,VWS V14.01,2013-09-24 20:30:00,
2013-09-24 14:33:00,45.1,34.5,29.73,North,357,0.0,0.0,66,0.04,,---,0.04,VWS V14.01,2013-09-24 20:33:00,
2013-09-24 14:34:00,45.1,34.5,29.73,North,357,0.0,0.0,66,0.04,,---,0.04,VWS V14.01,2013-09-24 20:34:00,
2013-09-24 14:35:00,45.1,34.5,29.73,North,357,0.0,0.0,66,0.04,,---,0.04,VWS V14.01,2013-09-24 20:35:00,
2013-09-24 14:38:00,45.1,34.8,29.73,North,357,0.0,0.0,67,0.04,,---,0.00,VWS V14.01,2013-09-24 20:38:00,
2013-09-24 14:39:00,45.1,34.8,29.73,North,357,0.0,0.0,67,0.04,,---,0.04,VWS V14.01,2013-09-24 20:39:00,
2013-09-24 14:40:00,45.1,34.8,29.73,North,357,0.0,0.0,67,0.04,,---,0.04,VWS V14.01,2013-09-24 20:40:00,
2013-09-24 14:43:00,45.1,35.2,29.73,North,357,0.0,0.0,68,0.04,,---,0.04,VWS V14.01,2013-09-24 20:43:00,
2013-09-24 14:45:00,45.3,35.8,29.73,North,357,0.0,0.0,69,0.04,,---,0.04,VWS V14.01,2013-09-24 20:45:00,
2013-09-24 14:48:00,45.1,36.0,29.73,North,357,0.0,0.0,70,0.04,,---,0.04,VWS V14.01,2013-09-24 20:48:00,
2013-09-24 14:50:00,45.3,36.5,29.73,North,357,0.0,0.0,71,0.04,,---,0.04,VWS V14.01,2013-09-24 20:50:00,
2013-09-24 14:53:00,45.1,37.0,29.73,North,357,0.0,0.0,73,0.04,,---,0.04,VWS V14.01,2013-09-24 20:53:00,
2013-09-24 14:55:00,45.1,37.0,29.73,North,357,0.0,0.0,73,0.04,,---,0.04,VWS V14.01,2013-09-24 20:55:00,
2013-09-24 14:58:00,45.0,36.8,29.73,North,357,0.0,0.0,73,0.08,,---,0.08,VWS V14.01,2013-09-24 20:58:00,
2013-09-24 15:00:00,45.0,37.2,29.73,North,357,0.0,0.0,74,0.08,,---,0.08,VWS V14.01,2013-09-24 21:00:00,
2013-09-24 15:03:00,45.0,37.2,29.73,North,357,0.0,0.0,74,0.08,,---,0.08,VWS V14.01,2013-09-24 21:03:00,
2013-09-24 15:04:00,45.0,37.2,29.73,North,357,0.0,0.0,74,0.08,,---,0.08,VWS V14.01,2013-09-24 21:04:00,
2013-09-24 15:05:00,45.1,37.4,29.73,North,357,0.0,0.0,74,0.08,,---,0.08,VWS V14.01,2013-09-24 21:05:00,
2013-09-24 15:06:00,45.1,37.4,29.73,North,357,0.0,0.0,74,0.08,,---,0.08,VWS V14.01,2013-09-24 21:06:00,
2013-09-24 15:08:00,45.1,37.4,29.73,North,357,0.0,0.0,74,0.08,,---,0.08,VWS V14.01,2013-09-24 21:08:00,
2013-09-24 15:09:00,45.1,37.4,29.73,North,357,0.0,0.0,74,0.08,,---,0.08,VWS V14.01,2013-09-24 21:09:00,
2013-09-24 15:10:00,45.1,37.4,29.73,North,357,0.0,0.0,74,0.08,,---,0.08,VWS V14.01,2013-09-24 21:10:00,
2013-09-24 15:11:00,45.1,37.4,29.73,North,357,0.0,0.0,74,0.08,,---,0.08,VWS V14.01,2013-09-24 21:11:00,
2013-09-24 15:13:00,45.1,37.4,29.73,North,357,0.0,0.0,74,0.08,,---,0.08,VWS V14.01,2013-09-24 21:13:00,
2013-09-24 15:14:00,45.3,37.9,29.73,North,357,0.0,0.0,75,0.08,,---,0.08,VWS V14.01,2013-09-24 21:14:00,
2013-09-24 15:15:00,45.3,37.9,29.73,North,357,0.0,0.0,75,0.08,,---,0.08,VWS V14.01,2013-09-24 21:15:00,
2013-09-24 15:16:00,45.3,37.9,29.73,North,357,0.0,0.0,75,0.08,,---,0.08,VWS V14.01,2013-09-24 21:16:00,
2013-09-24 15:18:00,45.3,37.9,29.73,North,357,0.0,0.0,75,0.08,,---,0.08,VWS V14.01,2013-09-24 21:18:00,
2013-09-24 15:19:00,45.3,37.9,29.73,North,357,0.0,0.0,75,0.12,,---,0.12,VWS V14.01,2013-09-24 21:19:00,
2013-09-24 15:20:00,45.3,37.9,29.73,North,357,0.0,0.0,75,0.12,,---,0.12,VWS V14.01,2013-09-24 21:20:00,
2013-09-24 15:21:00,45.3,37.9,29.73,North,357,0.0,0.0,75,0.12,,---,0.12,VWS V14.01,2013-09-24 21:21:00,
2013-09-24 15:22:00,45.3,37.9,29.73,North,357,0.0,0.0,75,0.12,,---,0.12,VWS V14.01,2013-09-24 21:22:00,
2013-09-24 15:23:00,45.5,38.0,29.73,North,357,0.0,0.0,75,0.12,,---,0.12,VWS V14.01,2013-09-24 21:23:00,
2013-09-24 15:24:00,45.5,38.0,29.73,North,357,0.0,0.0,75,0.12,,---,0.12,VWS V14.01,2013-09-24 21:24:00,
2013-09-24 15:25:00,45.5,38.0,29.73,North,357,0.0,0.0,75,0.12,,---,0.12,VWS V14.01,2013-09-24 21:25:00,
2013-09-24 15:26:00,45.5,38.0,29.73,North,357,0.0,0.0,75,0.12,,---,0.12,VWS V14.01,2013-09-24 21:26:00,
2013-09-24 15:27:00,45.5,38.4,29.73,North,357,0.0,0.0,76,0.12,,---,0.12,VWS V14.01,2013-09-24 21:27:00,
2013-09-24 15:28:00,45.5,38.4,29.73,North,357,0.0,0.0,76,0.12,,---,0.12,VWS V14.01,2013-09-24 21:28:00,
2013-09-24 15:30:00,45.7,38.6,29.73,North,357,0.0,0.0,76,0.12,,---,0.12,VWS V14.01,2013-09-24 21:30:00,
2013-09-24 15:31:00,45.7,38.6,29.73,North,357,0.0,0.0,76,0.08,,---,0.12,VWS V14.01,2013-09-24 21:31:00,
2013-09-24 15:32:00,45.7,38.6,29.73,North,357,0.0,0.0,76,0.08,,---,0.12,VWS V14.01,2013-09-24 21:32:00,
2013-09-24 15:33:00,45.7,38.9,29.73,North,357,0.0,0.0,77,0.08,,---,0.12,VWS V14.01,2013-09-24 21:33:00,
2013-09-24 15:35:00,45.7,38.9,29.73,North,357,0.0,0.0,77,0.08,,---,0.12,VWS V14.01,2013-09-24 21:35:00,
2013-09-24 15:36:00,45.7,38.9,29.73,North,357,0.0,0.0,77,0.08,,---,0.12,VWS V14.01,2013-09-24 21:36:00,
2013-09-24 15:37:00,45.7,38.9,29.73,North,357,0.0,0.0,77,0.08,,---,0.12,VWS V14.01,2013-09-24 21:37:00,
2013-09-24 15:38:00,45.7,38.9,29.73,North,357,0.0,0.0,77,0.08,,---,0.12,VWS V14.01,2013-09-24 21:38:00,
2013-09-24 15:40:00,45.9,39.1,29.73,North,357,0.0,0.0,77,0.08,,---,0.12,VWS V14.01,2013-09-24 21:40:00,
2013-09-24 15:41:00,45.9,39.1,29.73,North,357,0.0,0.0,77,0.08,,---,0.12,VWS V14.01,2013-09-24 21:41:00,
2013-09-24 15:42:00,45.9,39.1,29.73,North,357,0.0,0.0,77,0.08,,---,0.12,VWS V14.01,2013-09-24 21:42:00,
2013-09-24 15:43:00,45.9,39.1,29.73,North,357,0.0,0.0,77,0.08,,---,0.12,VWS V14.01,2013-09-24 21:43:00,
2013-09-24 15:45:00,45.9,39.1,29.70,North,357,0.0,0.0,77,0.08,,---,0.12,VWS V14.01,2013-09-24 21:45:00,
2013-09-24 15:46:00,45.9,39.1,29.70,North,357,0.0,0.0,77,0.12,,---,0.16,VWS V14.01,2013-09-24 21:46:00,
2013-09-24 15:47:00,45.9,39.1,29.70,North,357,0.0,0.0,77,0.12,,---,0.16,VWS V14.01,2013-09-24 21:47:00,
2013-09-24 15:48:00,46.0,39.2,29.70,North,357,0.0,0.0,77,0.12,,---,0.16,VWS V14.01,2013-09-24 21:48:00,
2013-09-24 15:50:00,46.0,39.2,29.70,North,357,0.0,0.0,77,0.12,,---,0.16,VWS V14.01,2013-09-24 21:50:00,
2013-09-24 15:51:00,46.0,39.6,29.70,North,357,0.0,0.0,78,0.12,,---,0.16,VWS V14.01,2013-09-24 21:51:00,
2013-09-24 15:53:00,46.0,39.6,29.70,North,357,0.0,0.0,78,0.12,,---,0.16,VWS V14.01,2013-09-24 21:53:00,
2013-09-24 15:55:00,46.0,39.6,29.70,North,357,0.0,0.0,78,0.12,,---,0.16,VWS V14.01,2013-09-24 21:55:00,
2013-09-24 15:57:00,46.0,39.6,29.70,North,357,0.0,0.0,78,0.12,,---,0.16,VWS V14.01,2013-09-24 21:57:00,
2013-09-24 15:58:00,46.0,39.6,29.70,North,357,0.0,0.0,78,0.12,,---,0.16,VWS V14.01,2013-09-24 21:58:00,
2013-09-24 16:00:00,46.0,39.6,29.70,North,357,0.0,0.0,78,0.08,,---,0.16,VWS V14.01,2013-09-24 22:00:00,
2013-09-24 16:02:00,46.0,39.6,29.70,North,357,0.0,0.0,78,0.08,,---,0.16,VWS V14.01,2013-09-24 22:02:00,
2013-09-24 16:03:00,46.0,39.6,29.70,North,357,0.0,0.0,78,0.08,,---,0.16,VWS V14.01,2013-09-24 22:03:00,
2013-09-24 16:05:00,46.0,39.6,29.70,North,357,0.0,0.0,78,0.08,,---,0.16,VWS V14.01,2013-09-24 22:05:00,
2013-09-24 16:07:00,46.0,39.6,29.70,North,357,0.0,0.0,78,0.08,,---,0.16,VWS V14.01,2013-09-24 22:07:00,
2013-09-24 16:08:00,46.0,39.9,29.70,North,357,0.0,0.0,79,0.08,,---,0.00,VWS V14.01,2013-09-24 22:08:00,
2013-09-24 16:09:00,46.0,39.9,29.70,North,357,0.0,0.0,79,0.08,,---,0.16,VWS V14.01,2013-09-24 22:09:00,
2013-09-24 16:10:00,46.2,40.1,29.70,North,357,0.0,0.0,79,0.08,,---,0.16,VWS V14.01,2013-09-24 22:10:00,
2013-09-24 16:12:00,46.2,40.1,29.70,North,357,0.0,0.0,79,0.08,,---,0.16,VWS V14.01,2013-09-24 22:12:00,
2013-09-24 16:13:00,46.2,40.4,29.70,North,357,0.0,0.0,80,0.08,,---,0.16,VWS V14.01,2013-09-24 22:13:00,
2013-09-24 16:14:00,46.2,40.4,29.70,North,357,0.0,0.0,80,0.08,,---,0.16,VWS V14.01,2013-09-24 22:14:00,
2013-09-24 16:16:00,46.2,40.4,29.70,North,357,0.0,0.0,80,0.08,,---,0.16,VWS V14.01,2013-09-24 22:16:00,
2013-09-24 16:17:00,46.2,40.4,29.70,North,357,2.2,2.2,80,0.08,,---,0.16,VWS V14.01,2013-09-24 22:17:00,
2013-09-24 16:18:00,46.2,40.4,29.70,North,357,0.0,2.2,80,0.08,,---,0.16,VWS V14.01,2013-09-24 22:18:00,
2013-09-24 16:19:00,46.2,40.4,29.70,North,0,2.7,2.7,80,0.08,,---,0.16,VWS V14.01,2013-09-24 22:19:00,
2013-09-24 16:21:00,46.0,40.2,29.70,North,357,0.0,2.2,80,0.12,,---,0.20,VWS V14.01,2013-09-24 22:21:00,
2013-09-24 16:22:00,46.0,40.2,29.70,North,357,2.2,2.7,80,0.12,,---,0.20,VWS V14.01,2013-09-24 22:22:00,
2013-09-24 16:24:00,46.0,40.2,29.70,North,357,0.0,0.0,80,0.12,,---,0.20,VWS V14.01,2013-09-24 22:24:00,
2013-09-24 16:26:00,45.9,40.0,29.70,North,357,0.0,0.0,80,0.12,,---,0.20,VWS V14.01,2013-09-24 22:26:00,
2013-09-24 16:27:00,45.9,40.0,29.70,North,357,0.0,0.0,80,0.12,,---,0.20,VWS V14.01,2013-09-24 22:27:00,
2013-09-24 16:29:00,45.9,40.0,29.70,North,357,0.0,0.0,80,0.12,,---,0.20,VWS V14.01,2013-09-24 22:29:00,
2013-09-24 16:30:00,45.9,40.0,29.70,North,357,0.0,0.0,80,0.12,,---,0.20,VWS V14.01,2013-09-24 22:30:00,
2013-09-24 16:31:00,45.9,40.4,29.70,North,357,0.0,2.2,81,0.08,,---,0.20,VWS V14.01,2013-09-24 22:31:00,
2013-09-24 16:32:00,45.9,40.4,29.70,North,357,0.0,0.0,81,0.08,,---,0.20,VWS V14.01,2013-09-24 22:32:00,
2013-09-24 16:34:00,45.9,40.4,29.70,North,357,2.2,2.7,81,0.08,,---,0.20,VWS V14.01,2013-09-24 22:34:00,
2013-09-24 16:35:00,45.9,40.4,29.70,North,357,2.2,2.7,81,0.08,,---,0.20,VWS V14.01,2013-09-24 22:35:00,
2013-09-24 16:36:00,45.9,40.7,29.70,North,357,2.2,2.7,82,0.08,,---,0.20,VWS V14.01,2013-09-24 22:36:00,
2013-09-24 16:38:00,45.7,40.5,29.70,North,357,0.0,3.1,82,0.08,,---,0.20,VWS V14.01,2013-09-24 22:38:00,
2013-09-24 16:39:00,45.7,40.5,29.70,North,357,0.0,0.0,82,0.08,,---,0.20,VWS V14.01,2013-09-24 22:39:00,
2013-09-24 16:40:00,45.7,40.5,29.70,North,357,0.0,0.0,82,0.08,,---,0.20,VWS V14.01,2013-09-24 22:40:00,
2013-09-24 16:41:00,45.7,40.5,29.70,North,357,0.0,0.0,82,0.08,,---,0.20,VWS V14.01,2013-09-24 22:41:00,
2013-09-24 16:43:00,45.7,40.5,29.70,North,357,2.2,2.2,82,0.08,,---,0.20,VWS V14.01,2013-09-24 22:43:00,
2013-09-24 16:44:00,45.7,40.8,29.70,North,357,0.0,0.0,83,0.08,,---,0.20,VWS V14.01,2013-09-24 22:44:00,
2013-09-24 16:46:00,45.5,40.7,29.70,North,357,0.0,0.0,83,0.08,,---,0.20,VWS V14.01,2013-09-24 22:46:00,
2013-09-24 16:48:00,45.5,40.7,29.70,North,357,0.0,0.0,83,0.08,,---,0.20,VWS V14.01,2013-09-24 22:48:00,
2013-09-24 16:49:00,45.5,40.7,29.70,North,357,0.0,0.0,83,0.08,,---,0.20,VWS V14.01,2013-09-24 22:49:00,
2013-09-24 16:51:00,45.5,40.7,29.70,North,357,0.0,0.0,83,0.08,,---,0.20,VWS V14.01,2013-09-24 22:51:00,
2013-09-24 16:54:00,45.7,40.8,29.70,North,357,2.7,2.7,83,0.12,,---,0.24,VWS V14.01,2013-09-24 22:54:00,
2013-09-24 16:55:00,45.5,40.7,29.70,North,357,0.0,2.2,83,0.12,,---,0.24,VWS V14.01,2013-09-24 22:55:00,
2013-09-24 16:56:00,45.5,40.7,29.70,North,0,2.7,3.1,83,0.12,,---,0.24,VWS V14.01,2013-09-24 22:56:00,
2013-09-24 16:57:00,45.5,40.7,29.70,North,1,2.7,4.0,83,0.12,,---,0.24,VWS V14.01,2013-09-24 22:57:00,
2013-09-24 16:59:00,45.5,40.7,29.70,North,11,4.0,5.8,83,0.12,,---,0.24,VWS V14.01,2013-09-24 22:59:00,
2013-09-24 17:00:00,45.3,40.5,29.70,North,353,0.0,4.0,83,0.12,,---,0.24,VWS V14.01,2013-09-24 23:00:00,
2013-09-24 17:02:00,45.3,40.5,29.70,North,353,0.0,3.1,83,0.08,,---,0.24,VWS V14.01,2013-09-24 23:02:00,
2013-09-24 17:04:00,45.1,40.3,29.70,North,353,2.2,2.2,83,0.08,,---,0.24,VWS V14.01,2013-09-24 23:04:00,
2013-09-24 17:05:00,45.1,40.6,29.70,North,0,3.6,3.6,84,0.08,,---,0.24,VWS V14.01,2013-09-24 23:05:00,
2013-09-24 17:07:00,45.1,40.3,29.70,North,353,0.0,2.2,83,0.08,,---,0.24,VWS V14.01,2013-09-24 23:07:00,
2013-09-24 17:09:00,45.0,40.1,29.70,NNW,334,2.2,2.2,83,0.08,,---,0.24,VWS V14.01,2013-09-24 23:09:00,
2013-09-24 17:10:00,45.0,40.1,29.70,NNW,335,0.0,2.2,83,0.08,,---,0.24,VWS V14.01,2013-09-24 23:10:00,
2013-09-24 17:12:00,45.0,40.4,29.70,NNW,333,2.7,2.7,84,0.12,,---,0.28,VWS V14.01,2013-09-24 23:12:00,
2013-09-24 17:14:00,44.8,40.2,29.70,NW,322,2.2,2.7,84,0.12,,---,0.28,VWS V14.01,2013-09-24 23:14:00,
2013-09-24 17:15:00,44.8,40.2,29.70,WNW,296,2.7,2.7,84,0.12,,---,0.28,VWS V14.01,2013-09-24 23:15:00,
2013-09-24 17:17:00,44.8,40.2,29.70,WNW,298,0.0,3.6,84,0.12,,---,0.28,VWS V14.01,2013-09-24 23:17:00,
2013-09-24 17:20:00,44.8,40.2,29.70,WNW,298,2.2,2.2,84,0.12,,---,0.28,VWS V14.01,2013-09-24 23:20:00,
2013-09-24 17:21:00,44.6,40.1,29.70,WNW,291,2.7,2.7,84,0.12,,---,0.28,VWS V14.01,2013-09-24 23:21:00,
2013-09-24 17:22:00,44.6,40.1,29.70,WNW,291,0.0,2.7,84,0.12,,---,0.28,VWS V14.01,2013-09-24 23:22:00,
2013-09-24 17:25:00,44.4,40.2,29.70,WNW,291,0.0,2.7,85,0.12,,---,0.28,VWS V14.01,2013-09-24 23:25:00,
2013-09-24 17:26:00,44.4,40.2,29.70,WNW,291,0.0,2.2,85,0.12,,---,0.28,VWS V14.01,2013-09-24 23:26:00,
2013-09-24 17:28:00,44.4,40.2,29.70,WNW,291,0.0,2.7,85,0.12,,---,0.28,VWS V14.01,2013-09-24 23:28:00,
2013-09-24 17:30:00,44.2,40.0,29.70,WNW,291,0.0,2.2,85,0.12,,---,0.28,VWS V14.01,2013-09-24 23:30:00,
2013-09-24 17:31:00,44.2,40.0,29.70,WNW,291,2.2,2.2,85,0.08,,---,0.28,VWS V14.01,2013-09-24 23:31:00,
2013-09-24 17:33:00,44.2,40.3,29.70,WNW,291,0.0,2.2,86,0.08,,---,0.28,VWS V14.01,2013-09-24 23:33:00,
2013-09-24 17:35:00,44.2,40.3,29.70,WNW,291,0.0,0.0,86,0.08,,---,0.28,VWS V14.01,2013-09-24 23:35:00,
2013-09-24 17:36:00,44.2,40.3,29.70,WNW,291,0.0,0.0,86,0.08,,---,0.28,VWS V14.01,2013-09-24 23:36:00,
2013-09-24 17:38:00,44.1,40.2,29.70,WNW,291,0.0,0.0,86,0.08,,---,0.28,VWS V14.01,2013-09-24 23:38:00,
2013-09-24 17:41:00,44.1,40.2,29.70,WNW,291,0.0,0.0,86,0.08,,---,0.28,VWS V14.01,2013-09-24 23:41:00,
2013-09-24 17:43:00,43.9,40.0,29.70,WNW,291,0.0,0.0,86,0.12,,---,0.31,VWS V14.01,2013-09-24 23:43:00,
2013-09-24 17:46:00,43.7,39.8,29.70,WNW,291,0.0,0.0,86,0.12,,---,0.31,VWS V14.01,2013-09-24 23:46:00,
2013-09-24 17:48:00,43.7,39.8,29.70,WNW,291,0.0,0.0,86,0.12,,---,0.31,VWS V14.01,2013-09-24 23:48:00,
2013-09-24 17:51:00,43.7,39.8,29.70,WNW,291,0.0,0.0,86,0.12,,---,0.31,VWS V14.01,2013-09-24 23:51:00,
2013-09-24 17:53:00,43.5,39.6,29.70,WNW,291,0.0,0.0,86,0.12,,---,0.31,VWS V14.01,2013-09-24 23:53:00,
2013-09-24 17:56:00,43.5,39.6,29.70,West,278,2.7,2.7,86,0.12,,---,0.31,VWS V14.01,2013-09-24 23:56:00,
2013-09-24 17:58:00,43.3,39.4,29.70,SSW,210,2.7,3.6,86,0.12,,---,0.31,VWS V14.01,2013-09-24 23:58:00,
2013-09-24 18:01:00,43.3,39.7,29.70,SSW,210,0.0,0.0,87,0.08,,---,0.31,VWS V14.01,2013-09-25 00:01:00,
2013-09-24 18:02:00,43.3,39.7,29.70,SSW,210,0.0,0.0,87,0.12,,---,0.35,VWS V14.01,2013-09-25 00:02:00,
2013-09-24 18:04:00,43.3,39.7,29.70,SSW,210,0.0,0.0,87,0.12,,---,0.35,VWS V14.01,2013-09-25 00:04:00,
2013-09-24 18:06:00,43.2,39.6,29.70,SSW,210,0.0,0.0,87,0.12,,---,0.35,VWS V14.01,2013-09-25 00:06:00,
2013-09-24 18:07:00,43.2,39.6,29.70,SSW,211,0.0,0.0,87,0.12,,---,0.35,VWS V14.01,2013-09-25 00:07:00,
2013-09-24 18:09:00,43.0,39.4,29.70,SSW,210,0.0,0.0,87,0.12,,---,0.35,VWS V14.01,2013-09-25 00:09:00,
2013-09-24 18:11:00,43.0,39.4,29.70,SSW,210,0.0,0.0,87,0.12,,---,0.35,VWS V14.01,2013-09-25 00:11:00,
2013-09-24 18:12:00,43.0,39.4,29.70,SSW,210,0.0,0.0,87,0.12,,---,0.35,VWS V14.01,2013-09-25 00:12:00,
2013-09-24 18:13:00,43.0,39.4,29.70,SSW,210,0.0,0.0,87,0.12,,---,0.35,VWS V14.01,2013-09-25 00:13:00,
2013-09-24 18:15:00,43.0,39.4,29.70,SSW,210,2.2,2.2,87,0.12,,---,0.35,VWS V14.01,2013-09-25 00:15:00,
2013-09-24 18:16:00,43.0,39.4,29.70,SSW,209,2.7,3.1,87,0.08,,---,0.35,VWS V14.01,2013-09-25 00:16:00,
2013-09-24 18:17:00,43.0,39.4,29.70,SSW,208,2.7,2.7,87,0.08,,---,0.35,VWS V14.01,2013-09-25 00:17:00,
2013-09-24 18:18:00,43.2,39.6,29.70,SSW,207,2.7,2.7,87,0.12,,---,0.39,VWS V14.01,2013-09-25 00:18:00,
2013-09-24 18:20:00,43.2,39.6,29.70,SSW,202,2.7,3.1,87,0.12,,---,0.39,VWS V14.01,2013-09-25 00:20:00,
2013-09-24 18:21:00,43.2,39.6,29.70,SSW,195,2.7,3.1,87,0.12,,---,0.39,VWS V14.01,2013-09-25 00:21:00,
2013-09-24 18:22:00,43.2,39.6,29.70,SSW,194,2.7,2.7,87,0.12,,---,0.39,VWS V14.01,2013-09-25 00:22:00,
2013-09-24 18:24:00,43.0,39.4,29.70,SSW,197,3.1,3.1,87,0.12,,---,0.39,VWS V14.01,2013-09-25 00:24:00,
2013-09-24 18:25:00,43.0,39.4,29.70,SSW,199,2.2,3.1,87,0.12,,---,0.39,VWS V14.01,2013-09-25 00:25:00,
2013-09-24 18:26:00,43.0,39.4,29.70,SSW,198,2.7,3.1,87,0.12,,---,0.39,VWS V14.01,2013-09-25 00:26:00,
2013-09-24 18:27:00,43.0,39.4,29.70,SSW,199,3.1,3.1,87,0.12,,---,0.39,VWS V14.01,2013-09-25 00:27:00,
2013-09-24 18:28:00,43.0,39.4,29.70,SSW,199,3.1,3.1,87,0.12,,---,0.39,VWS V14.01,2013-09-25 00:28:00,
2013-09-24 18:29:00,43.0,39.4,29.73,SSW,204,0.0,2.7,87,0.12,,---,0.39,VWS V14.01,2013-09-25 00:29:00,
2013-09-24 18:30:00,43.0,39.4,29.73,SSW,204,2.7,2.7,87,0.12,,---,0.39,VWS V14.01,2013-09-25 00:30:00,
2013-09-24 18:31:00,43.0,39.4,29.73,SSW,199,2.7,3.6,87,0.12,,---,0.39,VWS V14.01,2013-09-25 00:31:00,
2013-09-24 18:33:00,42.8,39.2,29.73,SSW,205,4.0,4.9,87,0.12,,---,0.39,VWS V14.01,2013-09-25 00:33:00,
2013-09-24 18:34:00,42.8,39.2,29.73,SSW,206,3.6,4.5,87,0.12,,---,0.39,VWS V14.01,2013-09-25 00:34:00,
2013-09-24 18:35:00,42.8,39.2,29.73,SSW,206,4.0,4.5,87,0.12,,---,0.39,VWS V14.01,2013-09-25 00:35:00,
2013-09-24 18:36:00,42.8,39.2,29.73,SSW,202,5.4,5.4,87,0.12,,---,0.39,VWS V14.01,2013-09-25 00:36:00,
2013-09-24 18:38:00,42.6,39.3,29.73,SSW,209,4.9,6.3,88,0.20,,---,0.47,VWS V14.01,2013-09-25 00:38:00,
2013-09-24 18:39:00,42.6,39.3,29.73,SSW,210,3.6,4.9,88,0.20,,---,0.47,VWS V14.01,2013-09-25 00:39:00,
2013-09-24 18:40:00,42.6,39.3,29.73,SSW,203,4.9,4.9,88,0.20,,---,0.47,VWS V14.01,2013-09-25 00:40:00,
2013-09-24 18:41:00,42.4,39.1,29.73,South,191,5.4,5.4,88,0.20,,---,0.47,VWS V14.01,2013-09-25 00:41:00,
2013-09-24 18:43:00,42.4,38.8,29.73,SSW,199,4.9,5.4,87,0.20,,---,0.47,VWS V14.01,2013-09-25 00:43:00,
2013-09-24 18:45:00,42.4,38.8,29.73,SSW,199,4.9,5.4,87,0.20,,---,0.47,VWS V14.01,2013-09-25 00:45:00,
2013-09-24 18:47:00,42.3,38.7,29.73,SSW,200,4.5,5.4,87,0.16,,---,0.47,VWS V14.01,2013-09-25 00:47:00,
2013-09-24 18:48:00,42.3,38.7,29.73,SSW,193,3.1,4.0,87,0.16,,---,0.47,VWS V14.01,2013-09-25 00:48:00,
2013-09-24 18:49:00,42.3,38.7,29.73,SSW,193,4.0,4.0,87,0.16,,---,0.47,VWS V14.01,2013-09-25 00:49:00,
2013-09-24 18:50:00,42.1,38.5,29.73,SSW,192,4.9,5.8,87,0.16,,---,0.47,VWS V14.01,2013-09-25 00:50:00,
2013-09-24 18:52:00,42.1,38.5,29.73,SSW,208,4.9,5.8,87,0.20,,---,0.51,VWS V14.01,2013-09-25 00:52:00,
2013-09-24 18:53:00,42.1,38.5,29.73,SSW,196,5.4,5.8,87,0.20,,---,0.51,VWS V14.01,2013-09-25 00:53:00,
2013-09-24 18:54:00,42.1,38.5,29.73,SSW,196,5.4,5.8,87,0.20,,---,0.51,VWS V14.01,2013-09-25 00:54:00,
2013-09-24 18:55:00,41.9,38.3,29.73,SSW,203,4.0,4.9,87,0.20,,---,0.51,VWS V14.01,2013-09-25 00:55:00,
2013-09-24 18:57:00,41.7,37.8,29.73,SSW,207,4.9,4.9,86,0.20,,---,0.51,VWS V14.01,2013-09-25 00:57:00,
2013-09-24 18:59:00,41.7,37.8,29.73,SSW,198,5.4,5.4,86,0.20,,---,0.51,VWS V14.01,2013-09-25 00:59:00,
2013-09-24 19:01:00,41.7,38.1,29.73,SSW,197,4.0,4.0,87,0.20,,---,0.51,VWS V14.01,2013-09-25 01:01:00,
2013-09-24 19:02:00,41.7,38.1,29.73,SSW,201,4.9,4.9,87,0.20,,---,0.51,VWS V14.01,2013-09-25 01:02:00,
2013-09-24 19:04:00,41.7,38.1,29.73,SSW,203,4.0,5.4,87,0.24,,---,0.55,VWS V14.01,2013-09-25 01:04:00,
2013-09-24 19:06:00,41.5,38.0,29.73,SSW,198,4.0,5.4,87,0.24,,---,0.55,VWS V14.01,2013-09-25 01:06:00,
2013-09-24 19:07:00,41.5,38.0,29.73,SSW,199,6.3,6.3,87,0.24,,---,0.55,VWS V14.01,2013-09-25 01:07:00,
2013-09-24 19:09:00,41.5,38.0,29.73,SSW,199,4.9,5.4,87,0.24,,---,0.55,VWS V14.01,2013-09-25 01:09:00,
2013-09-24 19:10:00,41.5,38.0,29.73,South,180,5.4,5.8,87,0.24,,---,0.55,VWS V14.01,2013-09-25 01:10:00,
2013-09-24 19:11:00,41.5,38.0,29.73,SSW,199,5.8,5.8,87,0.24,,---,0.55,VWS V14.01,2013-09-25 01:11:00,
2013-09-24 19:12:00,41.5,38.0,29.73,SSW,199,4.0,6.3,87,0.24,,---,0.55,VWS V14.01,2013-09-25 01:12:00,
2013-09-24 19:14:00,41.4,37.8,29.73,SSW,198,3.1,4.0,87,0.24,,---,0.55,VWS V14.01,2013-09-25 01:14:00,
2013-09-24 19:15:00,41.4,37.8,29.73,South,188,4.0,4.9,87,0.20,,---,0.55,VWS V14.01,2013-09-25 01:15:00,
2013-09-24 19:16:00,41.4,37.8,29.73,SSW,193,5.8,5.8,87,0.20,,---,0.55,VWS V14.01,2013-09-25 01:16:00,
2013-09-24 19:17:00,41.4,38.1,29.73,SSW,199,5.4,5.8,88,0.24,,---,0.59,VWS V14.01,2013-09-25 01:17:00,
2013-09-24 19:19:00,41.2,37.6,29.73,SSW,197,4.9,5.4,87,0.24,,---,0.59,VWS V14.01,2013-09-25 01:19:00,
2013-09-24 19:20:00,41.2,37.6,29.73,SSW,197,5.8,6.3,87,0.24,,---,0.59,VWS V14.01,2013-09-25 01:20:00,
2013-09-24 19:21:00,41.0,37.4,29.73,SSW,200,4.9,6.3,87,0.24,,---,0.59,VWS V14.01,2013-09-25 01:21:00,
2013-09-24 19:22:00,41.0,37.4,29.73,SSW,197,4.0,6.3,87,0.24,,---,0.59,VWS V14.01,2013-09-25 01:22:00,
2013-09-24 19:25:00,40.5,36.9,29.73,South,183,5.4,5.4,87,0.24,,---,0.59,VWS V14.01,2013-09-25 01:25:00,
2013-09-24 19:26:00,40.3,36.4,29.73,SSW,192,5.8,6.3,86,0.24,,---,0.59,VWS V14.01,2013-09-25 01:26:00,
2013-09-24 19:27:00,40.3,36.4,29.73,South,191,4.5,5.8,86,0.24,,---,0.59,VWS V14.01,2013-09-25 01:27:00,
2013-09-24 19:30:00,39.9,36.1,29.73,SSW,195,4.0,4.0,86,0.28,,---,0.63,VWS V14.01,2013-09-25 01:30:00,
2013-09-24 19:31:00,39.9,36.1,29.73,South,187,7.6,7.6,86,0.24,,---,0.63,VWS V14.01,2013-09-25 01:31:00,
2013-09-24 19:32:00,39.7,35.6,29.73,SSW,193,4.9,5.8,85,0.24,,---,0.63,VWS V14.01,2013-09-25 01:32:00,
2013-09-24 19:33:00,39.6,35.4,29.73,SSW,193,4.9,5.8,85,0.24,,---,0.63,VWS V14.01,2013-09-25 01:33:00,
2013-09-24 19:35:00,39.4,35.2,29.73,SSW,204,8.1,8.1,85,0.24,,---,0.63,VWS V14.01,2013-09-25 01:35:00,
2013-09-24 19:36:00,39.4,35.2,29.73,SSW,193,8.1,9.6,85,0.24,,---,0.63,VWS V14.01,2013-09-25 01:36:00,
2013-09-24 19:37:00,39.2,35.1,29.73,SSW,198,6.3,9.2,85,0.24,,---,0.63,VWS V14.01,2013-09-25 01:37:00,
2013-09-24 19:38:00,39.2,35.1,29.73,SSW,205,7.6,7.6,85,0.24,,---,0.63,VWS V14.01,2013-09-25 01:38:00,
2013-09-24 19:40:00,39.0,34.9,29.73,SSW,194,6.3,8.3,85,0.24,,---,0.63,VWS V14.01,2013-09-25 01:40:00,
2013-09-24 19:41:00,39.0,34.9,29.73,SSW,195,5.8,8.1,85,0.24,,---,0.63,VWS V14.01,2013-09-25 01:41:00,
2013-09-24 19:42:00,39.0,34.9,29.73,SSW,193,5.4,5.8,85,0.24,,---,0.63,VWS V14.01,2013-09-25 01:42:00,
2013-09-24 19:43:00,39.0,34.9,29.73,SSW,195,6.3,7.6,85,0.24,,---,0.63,VWS V14.01,2013-09-25 01:43:00,
2013-09-24 19:45:00,38.8,34.7,29.70,SSW,198,5.4,8.1,85,0.16,,---,0.63,VWS V14.01,2013-09-25 01:45:00,
2013-09-24 19:46:00,38.8,34.7,29.70,SSW,203,5.8,6.3,85,0.16,,---,0.63,VWS V14.01,2013-09-25 01:46:00,
2013-09-24 19:47:00,38.8,34.7,29.70,SSW,204,5.4,6.3,85,0.16,,---,0.63,VWS V14.01,2013-09-25 01:47:00,
2013-09-24 19:48:00,38.8,34.7,29.70,SSW,192,5.8,6.3,85,0.16,,---,0.63,VWS V14.01,2013-09-25 01:48:00,
2013-09-24 19:49:00,38.8,35.0,29.70,SSW,199,5.4,6.3,86,0.16,,---,0.63,VWS V14.01,2013-09-25 01:49:00,
2013-09-24 19:50:00,38.8,35.0,29.70,SSW,205,5.4,6.3,86,0.16,,---,0.63,VWS V14.01,2013-09-25 01:50:00,
2013-09-24 19:51:00,38.8,35.0,29.70,SSW,199,4.9,6.3,86,0.16,,---,0.63,VWS V14.01,2013-09-25 01:51:00,
2013-09-24 19:52:00,38.8,35.0,29.70,SSW,193,5.4,5.4,86,0.16,,---,0.63,VWS V14.01,2013-09-25 01:52:00,
2013-09-24 19:54:00,38.7,34.8,29.70,SW,218,5.8,5.8,86,0.16,,---,0.63,VWS V14.01,2013-09-25 01:54:00,
2013-09-24 19:55:00,38.7,34.8,29.70,SSW,213,4.9,6.3,86,0.16,,---,0.63,VWS V14.01,2013-09-25 01:55:00,
2013-09-24 19:57:00,38.7,34.8,29.70,SSW,207,5.8,5.8,86,0.16,,---,0.63,VWS V14.01,2013-09-25 01:57:00,
2013-09-24 19:59:00,38.7,35.1,29.73,SSW,199,7.6,8.1,87,0.16,,---,0.63,VWS V14.01,2013-09-25 01:59:00,
2013-09-24 20:00:00,38.7,35.1,29.73,SSW,200,5.4,7.6,87,0.12,,---,0.63,VWS V14.01,2013-09-25 02:00:00,
2013-09-24 20:02:00,38.7,35.1,29.73,SSW,204,5.4,6.3,87,0.12,,---,0.63,VWS V14.01,2013-09-25 02:02:00,
2013-09-24 20:04:00,38.8,35.3,29.73,SSW,202,5.4,5.8,87,0.12,,---,0.63,VWS V14.01,2013-09-25 02:04:00,
2013-09-24 20:05:00,38.8,35.3,29.73,SSW,197,5.4,5.8,87,0.12,,---,0.63,VWS V14.01,2013-09-25 02:05:00,
2013-09-24 20:07:00,38.8,35.3,29.73,South,188,4.0,4.0,87,0.12,,---,0.63,VWS V14.01,2013-09-25 02:07:00,
2013-09-24 20:09:00,38.8,35.6,29.73,SSW,192,2.7,3.1,88,0.12,,---,0.63,VWS V14.01,2013-09-25 02:09:00,
2013-09-24 20:10:00,38.8,35.6,29.73,SSW,192,2.7,3.1,88,0.12,,---,0.63,VWS V14.01,2013-09-25 02:10:00,
2013-09-24 20:12:00,38.8,35.3,29.73,SSW,193,3.6,4.0,87,0.12,,---,0.63,VWS V14.01,2013-09-25 02:12:00,
2013-09-24 20:13:00,38.8,35.3,29.73,South,188,4.0,4.0,87,0.12,,---,0.63,VWS V14.01,2013-09-25 02:13:00,
2013-09-24 20:14:00,38.8,35.3,29.73,SSW,196,6.3,6.3,87,0.12,,---,0.63,VWS V14.01,2013-09-25 02:14:00,
2013-09-24 20:15:00,38.8,35.3,29.73,SSW,202,5.8,6.3,87,0.12,,---,0.63,VWS V14.01,2013-09-25 02:15:00,
2013-09-24 20:18:00,38.8,35.3,29.73,South,183,4.0,4.9,87,0.08,,---,0.63,VWS V14.01,2013-09-25 02:18:00,
2013-09-24 20:19:00,38.8,35.6,29.73,South,172,3.6,4.9,88,0.08,,---,0.63,VWS V14.01,2013-09-25 02:19:00,
2013-09-24 20:20:00,38.8,35.6,29.73,South,175,3.6,4.9,88,0.08,,---,0.63,VWS V14.01,2013-09-25 02:20:00,
2013-09-24 20:23:00,38.8,35.6,29.73,SSW,201,4.0,5.4,88,0.08,,---,0.63,VWS V14.01,2013-09-25 02:23:00,
2013-09-24 20:25:00,39.0,35.8,29.73,SSW,196,4.0,4.9,88,0.08,,---,0.63,VWS V14.01,2013-09-25 02:25:00,
2013-09-24 20:26:00,39.0,35.8,29.73,SSW,198,4.0,5.4,88,0.08,,---,0.63,VWS V14.01,2013-09-25 02:26:00,
2013-09-24 20:28:00,39.2,35.7,29.73,SSW,204,2.7,3.1,87,0.08,,---,0.63,VWS V14.01,2013-09-25 02:28:00,
2013-09-24 20:30:00,39.2,35.7,29.70,SSW,204,3.1,3.6,87,0.08,,---,0.63,VWS V14.01,2013-09-25 02:30:00,
2013-09-24 20:31:00,39.2,35.7,29.70,SSW,204,0.0,0.0,87,0.00,,---,0.63,VWS V14.01,2013-09-25 02:31:00,
2013-09-24 20:33:00,39.2,35.7,29.70,SW,217,3.6,3.6,87,0.00,,---,0.63,VWS V14.01,2013-09-25 02:33:00,
2013-09-24 20:35:00,39.2,36.0,29.70,WSW,238,4.0,4.0,88,0.00,,---,0.63,VWS V14.01,2013-09-25 02:35:00,
2013-09-24 20:36:00,39.2,36.0,29.70,WSW,239,4.0,4.5,88,0.00,,---,0.63,VWS V14.01,2013-09-25 02:36:00,
2013-09-24 20:38:00,39.4,36.1,29.70,SSW,194,3.1,4.0,88,0.00,,---,0.63,VWS V14.01,2013-09-25 02:38:00,
2013-09-24 20:39:00,39.4,36.1,29.70,SSW,194,3.1,4.0,88,0.00,,---,0.63,VWS V14.01,2013-09-25 02:39:00,
2013-09-24 20:40:00,39.4,36.1,29.70,SSW,194,3.6,4.0,88,0.00,,---,0.63,VWS V14.01,2013-09-25 02:40:00,
2013-09-24 20:41:00,39.4,36.4,29.70,SSW,194,2.7,3.6,89,0.00,,---,0.63,VWS V14.01,2013-09-25 02:41:00,
2013-09-24 20:44:00,39.7,36.8,29.70,South,190,0.0,0.0,89,0.00,,---,0.63,VWS V14.01,2013-09-25 02:44:00,
2013-09-24 20:45:00,39.7,36.8,29.70,West,260,4.0,4.9,89,0.00,,---,0.63,VWS V14.01,2013-09-25 02:45:00,
2013-09-24 20:47:00,39.7,36.8,29.70,WSW,252,4.0,5.4,89,0.00,,---,0.63,VWS V14.01,2013-09-25 02:47:00,
2013-09-24 20:49:00,39.7,36.8,29.70,SW,223,3.1,4.0,89,0.00,,---,0.63,VWS V14.01,2013-09-25 02:49:00,
2013-09-24 20:50:00,39.9,37.0,29.70,SW,218,4.0,5.4,89,0.00,,---,0.63,VWS V14.01,2013-09-25 02:50:00,
2013-09-24 20:52:00,40.1,37.4,29.70,SW,216,4.0,4.9,90,0.00,,---,0.63,VWS V14.01,2013-09-25 02:52:00,
2013-09-24 20:54:00,40.5,37.8,29.70,SW,218,2.7,4.0,90,0.00,,---,0.63,VWS V14.01,2013-09-25 02:54:00,
2013-09-24 20:55:00,40.5,37.5,29.70,SW,218,2.2,2.2,89,0.00,,---,0.63,VWS V14.01,2013-09-25 02:55:00,
2013-09-24 20:57:00,40.6,37.7,29.70,SW,218,3.1,3.1,89,0.00,,---,0.63,VWS V14.01,2013-09-25 02:57:00,
2013-09-24 20:59:00,40.8,37.5,29.70,SW,228,3.1,3.6,88,0.00,,---,0.63,VWS V14.01,2013-09-25 02:59:00,
2013-09-24 21:00:00,40.8,37.5,29.76,SW,228,3.6,3.6,88,0.00,,---,0.63,VWS V14.01,2013-09-25 03:00:00,
2013-09-24 21:02:00,41.0,37.7,29.76,WSW,237,3.1,4.0,88,0.00,,---,0.63,VWS V14.01,2013-09-25 03:02:00,
2013-09-24 21:04:00,41.2,37.9,29.76,WSW,237,2.7,3.1,88,0.00,,---,0.63,VWS V14.01,2013-09-25 03:04:00,
2013-09-24 21:05:00,41.2,37.9,29.76,SSW,209,3.6,3.6,88,0.00,,---,0.63,VWS V14.01,2013-09-25 03:05:00,
2013-09-24 21:07:00,41.5,38.3,29.76,SSW,208,0.0,0.0,88,0.00,,---,0.63,VWS V14.01,2013-09-25 03:07:00,
2013-09-24 21:09:00,41.5,38.3,29.76,SSW,208,0.0,0.0,88,0.00,,---,0.63,VWS V14.01,2013-09-25 03:09:00,
2013-09-24 21:10:00,41.5,38.3,29.76,SSW,208,0.0,0.0,88,0.00,,---,0.63,VWS V14.01,2013-09-25 03:10:00,
2013-09-24 21:12:00,41.5,38.0,29.76,SSW,208,0.0,0.0,87,0.00,,---,0.63,VWS V14.01,2013-09-25 03:12:00,
2013-09-24 21:13:00,41.5,38.0,29.76,SSW,208,0.0,0.0,87,0.00,,---,0.63,VWS V14.01,2013-09-25 03:13:00,
2013-09-24 21:15:00,41.5,38.0,29.73,SSW,208,2.2,2.2,87,0.00,,---,0.63,VWS V14.01,2013-09-25 03:15:00,
2013-09-24 21:16:00,41.5,38.0,29.73,SSW,208,0.0,2.2,87,0.00,,---,0.63,VWS V14.01,2013-09-25 03:16:00,
2013-09-24 21:17:00,41.5,38.0,29.73,SSW,206,2.7,2.7,87,0.00,,---,0.63,VWS V14.01,2013-09-25 03:17:00,
2013-09-24 21:18:00,41.5,38.0,29.73,SSW,206,2.7,2.7,87,0.00,,---,0.63,VWS V14.01,2013-09-25 03:18:00,
2013-09-24 21:20:00,41.4,37.8,29.73,SSW,206,2.7,2.7,87,0.00,,---,0.63,VWS V14.01,2013-09-25 03:20:00,
2013-09-24 21:21:00,41.2,37.6,29.73,SSW,206,0.0,2.2,87,0.00,,---,0.63,VWS V14.01,2013-09-25 03:21:00,
2013-09-24 21:23:00,41.2,37.6,29.73,SSW,205,0.0,2.2,87,0.00,,---,0.63,VWS V14.01,2013-09-25 03:23:00,
2013-09-24 21:25:00,41.0,37.1,29.73,South,188,2.7,3.1,86,0.00,,---,0.63,VWS V14.01,2013-09-25 03:25:00,
2013-09-24 21:26:00,41.0,37.1,29.73,South,191,3.6,3.6,86,0.00,,---,0.63,VWS V14.01,2013-09-25 03:26:00,
2013-09-24 21:28:00,41.0,37.1,29.73,South,191,4.0,4.0,86,0.00,,---,0.63,VWS V14.01,2013-09-25 03:28:00,
2013-09-24 21:30:00,40.8,37.3,29.76,SSW,196,4.0,4.0,87,0.00,,---,0.63,VWS V14.01,2013-09-25 03:30:00,
2013-09-24 21:32:00,40.8,37.0,29.76,SSW,201,5.8,5.8,86,0.00,,---,0.63,VWS V14.01,2013-09-25 03:32:00,
2013-09-24 21:33:00,40.6,36.8,29.76,SSW,196,3.6,6.7,86,0.00,,---,0.63,VWS V14.01,2013-09-25 03:33:00,
2013-09-24 21:35:00,40.6,36.8,29.76,South,188,3.1,3.6,86,0.00,,---,0.63,VWS V14.01,2013-09-25 03:35:00,
2013-09-24 21:37:00,40.6,36.8,29.76,South,185,3.1,3.1,86,0.00,,---,0.63,VWS V14.01,2013-09-25 03:37:00,
2013-09-24 21:38:00,40.6,36.8,29.76,South,188,2.7,3.6,86,0.00,,---,0.63,VWS V14.01,2013-09-25 03:38:00,
2013-09-24 21:40:00,40.6,36.5,29.76,South,182,2.7,2.7,85,0.00,,---,0.63,VWS V14.01,2013-09-25 03:40:00,
2013-09-24 21:41:00,40.6,36.5,29.76,South,182,2.7,2.7,85,0.00,,---,0.63,VWS V14.01,2013-09-25 03:41:00,
2013-09-24 21:42:00,40.6,36.5,29.76,SSW,203,5.4,5.4,85,0.00,,---,0.63,VWS V14.01,2013-09-25 03:42:00,
2013-09-24 21:43:00,40.6,36.5,29.76,SSW,196,4.0,5.4,85,0.00,,---,0.63,VWS V14.01,2013-09-25 03:43:00,
2013-09-24 21:45:00,40.5,36.3,29.76,SSW,209,4.9,5.4,85,0.00,,---,0.63,VWS V14.01,2013-09-25 03:45:00,
2013-09-24 21:46:00,40.5,36.3,29.76,SW,215,3.6,5.4,85,0.00,,---,0.63,VWS V14.01,2013-09-25 03:46:00,
2013-09-24 21:47:00,40.5,36.3,29.76,SW,219,3.1,3.6,85,0.00,,---,0.63,VWS V14.01,2013-09-25 03:47:00,
2013-09-24 21:48:00,40.5,36.3,29.76,SW,222,3.1,3.1,85,0.00,,---,0.63,VWS V14.01,2013-09-25 03:48:00,
2013-09-24 21:50:00,40.5,36.3,29.76,SSW,199,5.8,5.8,85,0.00,,---,0.63,VWS V14.01,2013-09-25 03:50:00,
2013-09-24 21:52:00,40.5,36.3,29.76,SSW,206,3.6,4.0,85,0.00,,---,0.63,VWS V14.01,2013-09-25 03:52:00,
2013-09-24 21:53:00,40.5,36.3,29.76,SSW,212,4.5,4.5,85,0.00,,---,0.63,VWS V14.01,2013-09-25 03:53:00,
2013-09-24 21:56:00,40.5,36.3,29.76,SSW,212,2.7,3.1,85,0.00,,---,0.63,VWS V14.01,2013-09-25 03:56:00,
2013-09-24 21:57:00,40.5,36.6,29.76,SSW,212,3.1,3.1,86,0.00,,---,0.63,VWS V14.01,2013-09-25 03:57:00,
2013-09-24 21:58:00,40.5,36.6,29.76,SSW,212,2.7,3.1,86,0.00,,---,0.63,VWS V14.01,2013-09-25 03:58:00,
2013-09-24 21:59:00,40.5,36.6,29.76,SSW,212,2.7,2.7,86,0.00,,---,0.63,VWS V14.01,2013-09-25 03:59:00,
2013-09-24 22:01:00,40.3,36.4,29.76,SSW,203,3.6,4.0,86,0.00,,---,0.63,VWS V14.01,2013-09-25 04:01:00,
2013-09-24 22:06:00,40.5,36.6,29.76,SSW,210,5.8,5.8,86,0.00,,---,0.63,VWS V14.01,2013-09-25 04:06:00,
2013-09-24 22:07:00,40.5,36.6,29.76,SSW,204,5.4,5.8,86,0.00,,---,0.63,VWS V14.01,2013-09-25 04:07:00,
2013-09-24 22:11:00,40.6,36.8,29.76,SSW,196,4.9,5.8,86,0.00,,---,0.63,VWS V14.01,2013-09-25 04:11:00,
2013-09-24 22:12:00,40.6,36.8,29.76,SSW,198,4.9,5.8,86,0.00,,---,0.63,VWS V14.01,2013-09-25 04:12:00,
2013-09-24 22:16:00,40.6,35.9,29.76,SSW,194,3.6,5.4,83,0.00,,---,0.63,VWS V14.01,2013-09-25 04:16:00,
2013-09-24 22:17:00,40.6,35.9,29.76,SSW,199,3.6,4.9,83,0.00,,---,0.63,VWS V14.01,2013-09-25 04:17:00,
2013-09-24 22:21:00,40.6,35.3,29.76,SSW,206,4.9,5.4,81,0.00,,---,0.63,VWS V14.01,2013-09-25 04:21:00,
2013-09-24 22:22:00,40.6,35.3,29.76,SSW,207,4.9,5.8,81,0.00,,---,0.63,VWS V14.01,2013-09-25 04:22:00,
2013-09-24 22:26:00,41.0,35.3,29.76,SSW,205,4.0,5.4,80,0.00,,---,0.63,VWS V14.01,2013-09-25 04:26:00,
2013-09-24 22:27:00,41.0,35.0,29.76,SSW,205,3.6,3.6,79,0.00,,---,0.63,VWS V14.01,2013-09-25 04:27:00,
2013-09-24 22:31:00,41.2,34.5,29.76,SSW,205,4.0,5.8,77,0.00,,---,0.63,VWS V14.01,2013-09-25 04:31:00,
2013-09-24 22:32:00,41.2,34.5,29.76,SSW,203,3.6,4.0,77,0.00,,---,0.63,VWS V14.01,2013-09-25 04:32:00,
2013-09-24 22:33:00,41.2,34.2,29.76,SSW,201,4.0,4.0,76,0.00,,---,0.63,VWS V14.01,2013-09-25 04:33:00,
2013-09-24 22:36:00,41.2,34.2,29.76,South,185,2.7,3.1,76,0.00,,---,0.63,VWS V14.01,2013-09-25 04:36:00,
2013-09-24 22:37:00,41.2,34.2,29.76,South,184,2.7,2.7,76,0.00,,---,0.63,VWS V14.01,2013-09-25 04:37:00,
2013-09-24 22:38:00,41.2,34.2,29.76,South,179,2.2,2.7,76,0.00,,---,0.63,VWS V14.01,2013-09-25 04:38:00,
2013-09-24 22:42:00,40.8,33.8,29.76,South,180,3.1,3.6,76,0.00,,---,0.63,VWS V14.01,2013-09-25 04:42:00,
2013-09-24 22:43:00,40.8,34.2,29.76,SSW,192,4.0,4.9,77,0.00,,---,0.63,VWS V14.01,2013-09-25 04:43:00,
2013-09-24 22:47:00,40.5,34.2,29.76,SSW,193,4.9,5.4,78,0.00,,---,0.63,VWS V14.01,2013-09-25 04:47:00,
2013-09-24 22:48:00,40.5,34.2,29.76,SSW,199,5.4,5.4,78,0.00,,---,0.63,VWS V14.01,2013-09-25 04:48:00,
2013-09-24 22:52:00,40.5,34.8,29.76,SSW,202,4.0,4.0,80,0.00,,---,0.63,VWS V14.01,2013-09-25 04:52:00,
2013-09-24 22:53:00,40.5,34.8,29.76,SSW,197,5.4,5.4,80,0.00,,---,0.63,VWS V14.01,2013-09-25 04:53:00,
2013-09-24 22:54:00,40.5,34.8,29.76,SSW,197,3.6,4.9,80,0.00,,---,0.63,VWS V14.01,2013-09-25 04:54:00,
2013-09-24 22:57:00,40.5,35.1,29.76,SSW,197,3.6,5.8,81,0.00,,---,0.63,VWS V14.01,2013-09-25 04:57:00,
2013-09-24 22:58:00,40.5,35.1,29.76,SSW,199,3.6,4.0,81,0.00,,---,0.63,VWS V14.01,2013-09-25 04:58:00,
2013-09-24 22:59:00,40.5,35.1,29.76,SSW,196,5.8,5.8,81,0.00,,---,0.63,VWS V14.01,2013-09-25 04:59:00,
2013-09-24 23:03:00,40.5,35.4,29.76,SSW,197,5.4,6.3,82,0.00,,---,0.63,VWS V14.01,2013-09-25 05:03:00,
2013-09-24 23:04:00,40.5,35.4,29.76,SSW,197,4.9,5.8,82,0.00,,---,0.63,VWS V14.01,2013-09-25 05:04:00,
2013-09-24 23:08:00,40.5,35.7,29.76,SSW,207,4.5,5.4,83,0.00,,---,0.63,VWS V14.01,2013-09-25 05:08:00,
2013-09-24 23:09:00,40.5,35.7,29.76,SSW,201,5.4,5.8,83,0.00,,---,0.63,VWS V14.01,2013-09-25 05:09:00,
2013-09-24 23:13:00,40.6,35.9,29.76,SSW,193,3.6,4.5,83,0.00,,---,0.63,VWS V14.01,2013-09-25 05:13:00,
2013-09-24 23:14:00,40.8,36.1,29.76,SSW,193,3.1,4.0,83,0.00,,---,0.63,VWS V14.01,2013-09-25 05:14:00,
2013-09-24 23:18:00,40.8,36.1,29.76,SSW,193,2.7,2.7,83,0.00,,---,0.63,VWS V14.01,2013-09-25 05:18:00,
2013-09-24 23:19:00,40.8,36.1,29.76,SSW,193,2.2,2.7,83,0.00,,---,0.63,VWS V14.01,2013-09-25 05:19:00,
2013-09-24 23:20:00,40.8,35.8,29.76,SSW,192,0.0,2.2,82,0.00,,---,0.63,VWS V14.01,2013-09-25 05:20:00,
2013-09-24 23:23:00,40.6,35.6,29.76,South,191,2.7,2.7,82,0.00,,---,0.63,VWS V14.01,2013-09-25 05:23:00,
2013-09-24 23:24:00,40.6,35.6,29.76,South,191,2.2,2.7,82,0.00,,---,0.63,VWS V14.01,2013-09-25 05:24:00,
2013-09-24 23:25:00,40.5,35.4,29.76,South,190,2.2,2.7,82,0.00,,---,0.63,VWS V14.01,2013-09-25 05:25:00,
2013-09-24 23:28:00,40.3,35.2,29.76,South,189,2.7,2.7,82,0.00,,---,0.63,VWS V14.01,2013-09-25 05:28:00,
2013-09-24 23:29:00,40.3,35.2,29.76,South,189,2.2,2.7,82,0.00,,---,0.63,VWS V14.01,2013-09-25 05:29:00,
2013-09-24 23:30:00,40.3,35.2,29.76,South,189,3.1,3.1,82,0.00,,---,0.63,VWS V14.01,2013-09-25 05:30:00,
2013-09-24 23:34:00,40.3,35.5,29.76,South,189,2.2,2.7,83,0.00,,---,0.63,VWS V14.01,2013-09-25 05:34:00,
2013-09-24 23:35:00,40.3,35.5,29.76,South,189,0.0,3.1,83,0.00,,---,0.63,VWS V14.01,2013-09-25 05:35:00,
2013-09-24 23:36:00,40.3,35.5,29.76,South,189,2.2,2.7,83,0.00,,---,0.63,VWS V14.01,2013-09-25 05:36:00,
2013-09-24 23:39:00,40.3,35.8,29.76,South,190,3.1,3.1,84,0.00,,---,0.63,VWS V14.01,2013-09-25 05:39:00,
2013-09-24 23:40:00,40.5,36.0,29.76,SSW,198,2.7,4.0,84,0.00,,---,0.63,VWS V14.01,2013-09-25 05:40:00,
2013-09-24 23:41:00,40.5,36.0,29.76,SSW,195,3.1,3.1,84,0.00,,---,0.63,VWS V14.01,2013-09-25 05:41:00,
2013-09-24 23:44:00,40.6,36.5,29.76,SSW,194,4.0,4.0,85,0.00,,---,0.63,VWS V14.01,2013-09-25 05:44:00,
2013-09-24 23:45:00,40.8,36.4,29.76,SSW,195,4.0,4.0,84,0.00,,---,0.63,VWS V14.01,2013-09-25 05:45:00,
2013-09-24 23:46:00,40.8,36.4,29.76,SSW,195,3.6,4.0,84,0.00,,---,0.63,VWS V14.01,2013-09-25 05:46:00,
2013-09-24 23:49:00,41.0,36.2,29.76,SSW,196,2.7,3.1,83,0.00,,---,0.63,VWS V14.01,2013-09-25 05:49:00,
2013-09-24 23:50:00,41.0,35.9,29.76,SSW,196,3.6,3.6,82,0.00,,---,0.63,VWS V14.01,2013-09-25 05:50:00,
2013-09-24 23:51:00,41.0,35.6,29.76,SSW,196,2.7,3.6,81,0.00,,---,0.63,VWS V14.01,2013-09-25 05:51:00,
2013-09-24 23:54:00,41.2,35.5,29.76,SSW,196,0.0,2.7,80,0.00,,---,0.63,VWS V14.01,2013-09-25 05:54:00,
2013-09-24 23:55:00,41.2,35.5,29.76,SSW,196,0.0,0.0,80,0.00,,---,0.63,VWS V14.01,2013-09-25 05:55:00,
2013-09-24 23:56:00,41.2,35.5,29.76,SSW,196,2.2,2.7,80,0.00,,---,0.63,VWS V14.01,2013-09-25 05:56:00,
2013-09-24 23:59:00,40.8,34.8,29.76,SSW,196,0.0,2.2,79,0.00,,---,0.63,VWS V14.01,2013-09-25 05:59:00,